                ,  0.290,  0.386,  0.483,  0.580,  0.676,  0.773,  0.869,  0.966,  1.063,  1.159,  1.256,  1.352,  1.449,  1.545,  1.642,  1.739,  1.835,  1.932,  2.028,  2.125,  2.222,  2.318,  2.415,  2.511,  2.608,  2.705,  2.801,  2.898,  2.994,  3.091,  3.188,  3.284,  3.381,  3.477,  3.574,  3.671,  3.767,  3.864,  3.960,  4.057,  4.153,  4.250,  4.347,  4.443,  4.540,  4.636,  4.733,  4.830,  4.926,  5.023,  5.119,  5.216,  5.313,  5.409,  5.506,  5.602,  5.699,  5.796
2001/02/09 00:00,  999.0,   15.7,   17.4,   22.2,   24.6,   25.6,   25.9,   26.8,   28.3,   29.1,   29.3,   29.4,   28.5,   28.9,   29.6,   30.3,   30.9,   31.3,   30.8,   30.3,   28.8,   26.9,   26.0,   24.9,   23.7,   24.9,   24.0,   24.7,   23.8,   24.3,   24.8,   24.9,   27.5,   27.6,   25.7,   23.8,   22.6,   22.3,   22.6,   23.5,   22.3,   19.2,   21.4,   22.7,   25.6,  999.0,   32.6,   33.4,   37.2,   38.8,   42.3,  999.0,   40.4,   41.2,  999.0,   43.2,   41.4,  999.0
2001/02/09 00:10,  999.0,   16.8,   20.7,   23.2,   24.7,   24.8,   25.0,   25.3,   26.0,   27.7,   29.7,   30.4,   31.1,   31.2,   30.7,   30.0,   30.6,   31.1,   31.0,   30.7,   29.6,   28.7,   28.2,   28.5,   29.0,   28.1,   26.9,   27.0,   25.1,   25.0,   24.5,   23.4,   23.3,   24.4,   23.1,   23.4,   23.4,   23.0,   22.5,   22.4,   21.0,   17.9,   21.0,   24.0,   27.4,   33.3,   33.3,   32.4,   32.0,   34.0,   32.9,   30.0,   29.7,   34.3,  999.0,   38.3,   39.4,  999.0
2001/02/09 00:20,  999.0,   16.5,   20.5,   22.5,   24.6,   25.6,   26.3,   29.3,   30.2,   30.9,   31.5,   32.1,   32.3,   31.5,   30.7,   30.0,   29.5,   30.3,   30.3,   30.5,   30.8,   30.4,   30.6,   30.2,   28.8,   28.9,   28.4,   28.7,   28.2,   27.4,   26.7,   25.5,   24.6,   24.7,   25.4,   24.5,   24.1,   24.0,   23.9,   24.4,   22.2,   21.8,   24.6,   27.0,   29.8,   34.2,   33.5,   35.3,  999.0,   32.5,  999.0,  999.0,  999.0,  999.0,  999.0,  999.0,   40.5,  999.0
2001/02/09 00:30,  999.0,   16.3,   20.5,   23.7,   25.3,   26.2,   28.6,   29.6,   29.5,   30.4,   30.9,   31.2,   31.7,   32.1,   32.4,   33.3,   33.3,   32.4,   31.7,   31.9,   31.9,   32.1,   32.2,   31.9,   30.8,   28.5,   29.4,   29.8,   29.2,   29.0,   28.7,   27.7,   24.8,   22.6,   21.0,   19.1,   21.8,   21.8,   21.6,   22.1,   21.8,   19.7,   21.5,   25.5,   28.5,   30.9,   31.8,   31.6,   27.1,   33.0,  999.0,   37.1,  999.0,  999.0,  999.0,  999.0,  999.0,  999.0
2001/02/09 00:40,  999.0,  999.0,   16.6,   21.0,   23.1,   26.0,   27.4,   29.0,   28.8,   29.4,   30.3,   30.1,   30.7,   31.7,   32.8,   33.0,   34.8,   34.7,   36.3,   34.8,   36.4,   35.0,   36.5,   31.1,   29.9,   32.2,   31.6,   33.3,   33.3,   31.9,   29.8,   28.4,   27.8,   23.9,   24.1,   23.0,   22.1,   20.7,   26.9,   19.2,   17.7,   15.9,   15.2,   19.7,  999.0,  999.0,  999.0,  999.0,  999.0,  999.0,  999.0,  999.0,  999.0,  999.0,  999.0,  999.0,  999.0,  999.0
2001/02/09 00:50,  999.0,   15.9,   18.7,   23.3,   23.9,   26.0,   26.8,   28.7,   29.9,   31.1,   31.6,   29.9,   29.8,   30.6,   31.3,   31.9,   31.9,   32.5,   33.4,   33.4,   33.5,   33.4,   33.2,   32.6,   34.2,   34.2,   34.4,   33.3,   32.5,   31.4,   30.7,   29.7,   28.4,   29.3,   28.8,   27.7,   26.0,   27.1,   27.1,  999.0,  999.0,  999.0,   21.6,   27.1,   32.6,   41.4,  999.0,  999.0,  999.0,  999.0,  999.0,  999.0,   33.4,  999.0,  999.0,  999.0,  999.0,  999.0
2001/02/09 01:00,  999.0,   18.2,   21.8,   24.2,   26.4,   28.2,   29.0,   29.6,   30.0,   30.7,   30.8,   31.2,   30.8,   31.0,   32.1,   33.5,   33.4,   33.6,   33.0,   32.8,   32.9,   33.2,   33.4,   33.3,   32.2,   31.9,   33.0,   30.6,   30.5,   30.8,   30.4,   28.8,   25.5,   26.9,   25.4,   24.9,   24.3,   23.5,   22.2,   22.6,   18.6,   15.1,   15.2,   16.7,   17.1,   17.3,   22.1,   19.8,   19.6,   17.4,   18.8,   18.6,   17.6,   16.9,   17.8,   16.9,   19.0,  999.0
2001/02/09 01:10,  999.0,   16.5,   20.4,   22.8,   25.1,   26.8,   28.4,   29.1,   29.0,   28.6,   29.0,   29.5,   29.3,   30.8,   31.6,   31.5,   32.0,   32.5,   32.6,   32.8,   32.7,   32.5,   32.2,   32.2,   32.1,   31.9,   30.3,   30.2,   30.7,   32.3,   32.1,   28.7,   29.4,   26.6,   24.0,   23.4,   23.0,   22.6,   21.0,   20.6,   20.7,   18.2,   15.8,   17.0,   20.0,   24.2,   25.9,   25.4,   29.9,   30.8,   30.6,   31.6,   34.3,   36.1,   31.0,   26.4,   22.6,   20.5
2001/02/09 01:20,  999.0,   17.4,   20.9,   23.8,   26.2,   27.7,   29.1,   28.9,   29.0,   29.3,   30.3,   30.3,   29.7,   30.7,   30.3,   30.3,   30.9,   32.2,   32.4,   32.8,   31.4,   31.2,   31.1,   31.2,   32.0,   32.1,   31.0,   30.8,   31.9,   32.3,   31.4,   30.2,   27.6,   26.4,   25.3,   20.9,   20.6,   20.8,   20.1,   21.3,   22.3,   21.7,   18.9,   21.8,   27.3,   33.2,   35.1,   32.8,   33.7,   36.2,   37.2,   36.0,   37.6,  999.0,  999.0,   41.1,  999.0,  999.0
2001/02/09 01:30,  999.0,   21.6,   22.0,   24.0,   25.8,   27.6,   28.4,   29.0,   29.1,   29.1,   29.2,   29.2,   29.2,   29.0,   29.4,   29.8,   30.7,   31.0,   30.8,   30.6,   30.2,   29.7,   29.2,   28.8,   29.8,   30.2,   31.0,   31.0,   31.3,   30.6,   31.6,   31.7,   29.7,   29.3,   28.2,   26.0,   24.3,   24.4,   24.3,   23.3,   19.3,   18.8,   18.6,   22.6,   29.6,   37.1,   40.2,   39.2,   38.7,   38.6,   40.5,  999.0,  999.0,  999.0,  999.0,  999.0,  999.0,  999.0
2001/02/09 01:40,  999.0,   21.4,   21.3,   24.0,   24.9,   24.9,   22.5,   27.3,   28.8,   29.8,   30.2,   29.4,   29.1,   29.1,   29.9,   30.2,   30.6,   32.0,   31.3,   30.7,   30.0,   29.3,   27.6,   27.9,   28.0,   29.4,   31.2,   30.2,   31.7,   30.7,   30.7,   30.4,   30.3,   28.2,   26.5,   24.7,   24.0,   23.3,   23.5,   23.1,   22.9,   23.8,   24.9,   26.0,  999.0,  999.0,  999.0,  999.0,  999.0,  999.0,  999.0,  999.0,  999.0,  999.0,  999.0,  999.0,  999.0,  999.0
2001/02/09 01:50,  999.0,   18.7,   21.1,   22.6,   23.4,   23.8,   24.9,   26.5,   27.9,   28.7,   29.5,   29.7,   29.1,   28.9,   29.3,   29.8,   30.7,   30.7,   31.5,   32.8,   31.0,   29.9,   28.0,   26.7,   26.6,   28.0,   29.9,   31.1,   30.9,   30.3,   30.2,   30.9,   31.2,   32.1,   32.5,   31.9,   30.3,   31.2,   31.2,   29.8,   29.7,   29.6,   30.2,   35.8,   40.3,   42.9,  999.0,  999.0,   42.7,  999.0,  999.0,  999.0,  999.0,  999.0,  999.0,  999.0,  999.0,  999.0
2001/02/09 02:00,  999.0,   17.7,   19.6,   21.3,   23.0,   24.0,   25.2,   26.6,   28.0,   28.9,   29.8,   30.8,   30.9,   30.3,   30.1,   30.5,   30.1,   30.5,   31.4,   31.3,   31.7,   31.0,   28.9,   26.8,   27.3,   28.5,   30.7,   31.9,   31.4,   30.8,   31.5,   32.2,   32.4,   32.9,   31.8,   29.7,   32.3,   28.8,   26.7,   28.0,   29.6,   30.0,   30.4,   33.5,   37.8,   41.5,  999.0,  999.0,  999.0,  999.0,   40.8,   40.1,   42.3,  999.0,  999.0,   41.6,  999.0,  999.0
2001/02/09 02:10,  999.0,   18.3,   19.9,   21.4,   22.5,   23.6,   23.9,   26.5,   27.7,   29.0,   29.7,   30.9,   31.5,   30.4,   29.9,   29.9,   30.0,   30.6,   31.4,   31.6,   31.9,   31.1,   29.8,   28.3,   27.3,   26.8,   27.3,   28.2,   28.3,   29.3,   29.5,   30.8,   30.8,   30.0,   29.8,   29.7,   29.1,   28.0,   24.9,   26.8,   28.6,   28.7,  999.0,  999.0,  999.0,  999.0,  999.0,  999.0,  999.0,  999.0,  999.0,  999.0,  999.0,  999.0,  999.0,  999.0,  999.0,  999.0
2001/02/09 02:20,  999.0,   16.3,   19.0,   20.6,   22.7,   23.6,   24.8,   26.3,   28.4,   29.7,   30.4,   30.4,   31.8,   30.9,   30.5,   30.3,   31.1,   31.3,   32.5,   32.9,   33.1,   32.5,   32.5,   30.5,   30.6,   29.8,   28.6,   29.7,   30.7,   30.0,   30.4,   30.4,   30.9,   32.5,  999.0,  999.0,  999.0,   32.0,  999.0,  999.0,   40.7,   41.7,  999.0,   41.1,   40.9,   41.2,  999.0,  999.0,   41.6,  999.0,  999.0,  999.0,  999.0,  999.0,  999.0,   41.5,  999.0,  999.0
2001/02/09 02:30,  999.0,   15.6,   18.4,   21.7,   23.1,   24.7,   25.0,   26.4,   27.7,   28.7,   28.8,   28.7,   29.3,   29.8,   30.1,   30.4,   29.6,   29.7,   30.4,   31.8,   32.8,   33.4,   31.6,   30.3,   28.0,   28.1,   29.4,   30.8,   31.0,   31.9,   31.6,   30.6,  999.0,  999.0,  999.0,  999.0,  999.0,  999.0,  999.0,  999.0,  999.0,  999.0,  999.0,  999.0,  999.0,  999.0,  999.0,  999.0,  999.0,  999.0,  999.0,  999.0,  999.0,  999.0,  999.0,  999.0,  999.0,  999.0
2001/02/09 02:40,  999.0,   15.8,   18.0,   20.3,   22.6,   23.5,   24.9,   25.6,   25.3,   25.5,   25.5,   25.5,   25.2,   25.1,   24.7,   25.0,   25.7,   25.9,   25.3,   25.0,   27.2,   28.4,   28.6,   27.1,   24.8,   26.7,   24.2,   25.0,   27.2,   24.1,   24.9,   25.6,   26.7,   28.6,   29.5,   31.3,   27.1,   27.2,   27.3,   24.3,   25.3,   27.4,   22.8,   26.7,   35.5,   38.4,   42.4,  999.0,  999.0,  999.0,   32.0,   32.4,   33.3,   31.7,   31.7,   35.8,  999.0,  999.0
2001/02/09 02:50,  999.0,   15.6,   17.3,   20.0,   20.6,   21.1,   21.9,   24.0,   24.0,   25.2,   27.4,   27.9,   28.4,   27.0,   27.3,   26.5,   25.6,   26.7,   27.0,   25.9,   27.2,   26.7,   25.5,   25.9,   26.6,   25.2,   25.6,   24.6,   25.5,   24.6,   24.7,   22.6,   24.3,   26.5,   28.9,  999.0,  999.0,  999.0,  999.0,   30.8,  999.0,  999.0,   23.3,   29.0,   34.1,   37.9,   36.3,   31.7,   24.1,   34.5,   33.9,   32.1,   27.3,   24.7,   27.5,   25.3,   18.6,   16.8
2001/02/09 03:00,  999.0,    2.9,    4.0,   10.7,   10.8,    4.6,    5.8,   10.2,   10.2,   12.3,   14.2,   17.1,   18.0,   21.9,   27.8,   22.3,   21.3,   32.4,   32.8,   32.4,   31.0,   27.7,   28.6,   24.5,   26.4,   26.4,   23.9,   26.6,  999.0,   22.8,    9.0,  999.0,  999.0,   36.1,   12.1,  999.0,  999.0,  999.0,   12.0,  999.0,  999.0,  999.0,   12.3,   19.1,   23.7,   26.3,   26.4,   24.1,   24.4,  999.0,   22.3,   21.0,   20.7,   20.8,   19.1,   19.9,   19.9,   18.8
2001/02/09 03:10,  999.0,   15.7,   18.2,   20.3,   21.9,   22.7,   23.2,   24.4,   25.1,   25.2,   24.7,   24.7,   25.1,   26.2,   26.0,   24.2,   24.7,   28.8,   27.8,   33.9,   34.6,   36.0,   34.5,   33.0,   32.1,  999.0,   40.8,  999.0,   40.9,   42.9,  999.0,   41.3,  999.0,   41.8,   42.3,  999.0,   41.1,  999.0,  999.0,  999.0,  999.0,  999.0,   33.9,  999.0,   41.1,  999.0,  999.0,  999.0,  999.0,  999.0,   33.8,   26.2,   42.4,   23.5,   32.1,  999.0,  999.0,  999.0
2001/02/09 03:20,  999.0,  999.0,   13.5,   13.5,   14.9,   17.3,   15.9,   15.9,   24.5,   24.9,   19.0,   25.3,   25.2,   26.2,   27.3,   27.7,   27.7,   26.2,   28.4,   27.2,   30.4,   25.9,   28.2,   27.2,   26.5,   26.7,   26.2,   24.7,   23.6,   26.1,   26.8,  999.0,   26.8,   28.6,  999.0,  999.0,  999.0,  999.0,  999.0,   42.2,  999.0,  999.0,  999.0,   34.4,   40.7,   41.7,   41.9,  999.0,   42.2,  999.0,   41.2,  999.0,  999.0,  999.0,  999.0,  999.0,  999.0,  999.0
2001/02/09 03:30,  999.0,    0.1,    4.7,    8.8,   10.6,   11.3,    7.8,   12.5,    0.0,   10.6,   -0.1,   -0.3,  999.0,  999.0,  999.0,  999.0,  999.0,  999.0,  999.0,  999.0,  999.0,  999.0,  999.0,  999.0,  999.0,  999.0,  999.0,  999.0,  999.0,  999.0,  999.0,  999.0,  999.0,  999.0,  999.0,  999.0,  999.0,   28.8,  999.0,  999.0,  999.0,  999.0,  999.0,  999.0,  999.0,  999.0,  999.0,  999.0,  999.0,  999.0,  999.0,  999.0,  999.0,  999.0,  999.0,  999.0,  999.0,  999.0
2001/02/09 03:40,  999.0,   13.1,   18.5,   17.1,   14.0,   23.9,   16.5,   16.0,   17.0,    6.6,   10.0,   10.3,   13.1,   15.6,   15.3,  999.0,  999.0,   20.0,   21.5,   21.6,  999.0,  999.0,  999.0,  999.0,   21.6,  999.0,  999.0,  999.0,  999.0,  999.0,  999.0,  999.0,  999.0,  999.0,  999.0,   21.2,  999.0,   21.3,   21.5,  999.0,  999.0,  999.0,  999.0,  999.0,  999.0,  999.0,  999.0,  999.0,  999.0,  999.0,  999.0,  999.0,  999.0,  999.0,  999.0,  999.0,  999.0,  999.0
2001/02/09 03:50,  999.0,   10.5,   13.4,   13.0,   -1.0,   -1.1,   -0.1,    3.4,    4.2,    0.3,  999.0,    0.1,    2.9,  999.0,  999.0,  999.0,  999.0,  999.0,   12.7,   20.9,  999.0,  999.0,  999.0,  999.0,  999.0,  999.0,  999.0,  999.0,   20.9,  999.0,  999.0,  999.0,  999.0,  999.0,  999.0,  999.0,  999.0,  999.0,  999.0,  999.0,  999.0,  999.0,  999.0,  999.0,  999.0,  999.0,  999.0,  999.0,  999.0,  999.0,  999.0,  999.0,  999.0,  999.0,  999.0,  999.0,  999.0,  999.0
2001/02/09 04:00,  999.0,  999.0,  999.0,    1.3,    0.0,   -0.4,    0.0,    1.7,    3.7,    7.2,    5.4,   10.5,    7.3,    6.6,    6.1,    2.4,    6.7,    9.6,   11.4,  999.0,    4.2,  999.0,    6.8,    6.7,  999.0,    5.8,  999.0,  999.0,    9.4,  999.0,  999.0,  999.0,  999.0,  999.0,  999.0,  999.0,  999.0,  999.0,  999.0,  999.0,  999.0,  999.0,  999.0,  999.0,  999.0,  999.0,  999.0,  999.0,  999.0,  999.0,  999.0,  999.0,  999.0,  999.0,  999.0,  999.0,  999.0,  999.0
2001/02/09 04:10,  999.0,  999.0,    4.9,    0.2,    0.0,    0.4,    0.5,   -0.1,   -0.5,    0.3,  999.0,   -0.0,  999.0,  999.0,  999.0,  999.0,  999.0,  999.0,   -0.6,  999.0,  999.0,  999.0,  999.0,  999.0,  999.0,   -0.3,  999.0,  999.0,  999.0,  999.0,  999.0,  999.0,  999.0,  999.0,  999.0,  999.0,  999.0,  999.0,  999.0,  999.0,  999.0,  999.0,  999.0,  999.0,  999.0,  999.0,  999.0,    3.0,  999.0,  999.0,  999.0,  999.0,  999.0,  999.0,  999.0,  999.0,  999.0,  999.0
2001/02/09 04:20,  999.0,  999.0,    4.5,   -0.8,   -0.0,   -0.6,   -0.3,    0.2,    0.1,  999.0,    0.3,    0.0,  999.0,   -0.9,  999.0,    2.6,  999.0,  999.0,    1.4,    2.6,  999.0,  999.0,  999.0,  999.0,  999.0,  999.0,  999.0,  999.0,  999.0,  999.0,  999.0,  999.0,  999.0,  999.0,  999.0,  999.0,  999.0,  999.0,  999.0,  999.0,  999.0,  999.0,  999.0,  999.0,  999.0,  999.0,  999.0,  999.0,  999.0,  999.0,  999.0,  999.0,  999.0,  999.0,  999.0,  999.0,  999.0,  999.0
2001/02/09 04:30,  999.0,  999.0,   -1.2,   -0.1,    1.1,   -0.0,   -0.2,    0.1,    0.6,   -0.3,   -0.0,   -0.1,   -0.7,  999.0,  999.0,  999.0,   -0.1,  999.0,  999.0,  999.0,  999.0,  999.0,  999.0,  999.0,  999.0,  999.0,  999.0,  999.0,  999.0,  999.0,  999.0,  999.0,  999.0,  999.0,  999.0,  999.0,  999.0,  999.0,  999.0,  999.0,  999.0,  999.0,  999.0,  999.0,  999.0,  999.0,  999.0,  999.0,  999.0,  999.0,  999.0,  999.0,  999.0,  999.0,  999.0,  999.0,    3.9,  999.0
2001/02/09 04:40,  999.0,  999.0,   -0.4,   -2.3,    0.9,   -0.0,   -0.2,   -0.8,   -0.8,  999.0,   -0.2,   -0.5,  999.0,  999.0,  999.0,  999.0,  999.0,  999.0,  999.0,  999.0,  999.0,  999.0,  999.0,  999.0,  999.0,  999.0,  999.0,  999.0,  999.0,  999.0,  999.0,  999.0,  999.0,  999.0,  999.0,  999.0,  999.0,  999.0,  999.0,  999.0,  999.0,  999.0,  999.0,  999.0,  999.0,  999.0,  999.0,  999.0,  999.0,  999.0,  999.0,  999.0,  999.0,  999.0,  999.0,  999.0,  999.0,  999.0
2001/02/09 04:50,  999.0,  999.0,   -0.6,    0.1,    7.4,    7.9,    0.9,   -0.9,   10.7,  999.0,   10.7,  999.0,  999.0,  999.0,   20.6,  999.0,  999.0,  999.0,   20.5,  999.0,  999.0,  999.0,  999.0,  999.0,  999.0,  999.0,  999.0,  999.0,   21.2,  999.0,  999.0,  999.0,  999.0,  999.0,  999.0,  999.0,  999.0,  999.0,  999.0,  999.0,  999.0,   20.0,  999.0,   19.1,   20.4,  999.0,   19.9,  999.0,  999.0,   19.8,  999.0,  999.0,  999.0,  999.0,  999.0,  999.0,  999.0,  999.0
2001/02/09 05:00,  999.0,    1.3,    0.5,    6.0,    5.4,   10.6,   16.0,   10.9,    0.6,  999.0,    0.5,  999.0,  999.0,   19.8,  999.0,  999.0,  999.0,  999.0,  999.0,  999.0,  999.0,  999.0,  999.0,  999.0,  999.0,  999.0,  999.0,  999.0,  999.0,  999.0,  999.0,  999.0,  999.0,  999.0,  999.0,  999.0,  999.0,  999.0,  999.0,  999.0,  999.0,  999.0,  999.0,  999.0,  999.0,  999.0,  999.0,  999.0,  999.0,  999.0,  999.0,  999.0,  999.0,  999.0,  999.0,  999.0,  999.0,  999.0
2001/02/09 05:10,  999.0,   -0.1,    0.4,    0.4,    0.0,   -0.5,    0.4,    0.3,   -0.1,   -0.3,    0.2,    0.4,  999.0,    3.5,  999.0,  999.0,  999.0,  999.0,  999.0,  999.0,  999.0,  999.0,  999.0,  999.0,  999.0,  999.0,  999.0,  999.0,  999.0,  999.0,  999.0,  999.0,  999.0,  999.0,  999.0,  999.0,  999.0,  999.0,  999.0,  999.0,  999.0,  999.0,  999.0,  999.0,  999.0,  999.0,  999.0,  999.0,  999.0,  999.0,  999.0,  999.0,  999.0,  999.0,  999.0,  999.0,  999.0,  999.0
2001/02/09 05:20,  999.0,    8.6,    9.3,    6.6,    6.7,    6.9,    7.1,    6.9,   -0.2,  999.0,   -0.1,   -0.3,  999.0,  999.0,  999.0,  999.0,  999.0,   22.0,  999.0,   22.2,   21.6,  999.0,  999.0,  999.0,  999.0,   22.4,  999.0,  999.0,  999.0,   22.1,  999.0,    9.9,  999.0,  999.0,   21.3,   21.2,   21.3,    4.0,  999.0,  999.0,  999.0,   21.2,  999.0,  999.0,   18.8,   20.9,  999.0,   20.6,   22.0,   21.0,   21.7,  999.0,  999.0,  999.0,  999.0,  999.0,  999.0,  999.0
2001/02/09 05:30,  999.0,   11.7,   15.9,   17.5,    9.7,    9.9,   -0.4,   20.2,   20.4,   21.6,   22.3,  999.0,  999.0,   21.6,  999.0,   21.0,  999.0,  999.0,  999.0,   21.9,   22.3,  999.0,   21.7,  999.0,  999.0,  999.0,  999.0,  999.0,  999.0,  999.0,  999.0,  999.0,  999.0,  999.0,  999.0,  999.0,  999.0,  999.0,  999.0,  999.0,  999.0,  999.0,  999.0,  999.0,  999.0,  999.0,  999.0,  999.0,  999.0,  999.0,  999.0,  999.0,  999.0,  999.0,  999.0,  999.0,  999.0,  999.0
2001/02/09 05:40,  999.0,   13.4,   16.4,   19.2,   21.4,   21.4,   20.5,   21.8,  999.0,   21.5,  999.0,   20.8,  999.0,  999.0,  999.0,  999.0,  999.0,  999.0,  999.0,  999.0,  999.0,   20.8,  999.0,  999.0,  999.0,  999.0,  999.0,  999.0,  999.0,  999.0,  999.0,  999.0,  999.0,  999.0,  999.0,   21.2,   20.3,  999.0,  999.0,  999.0,  999.0,  999.0,   20.5,  999.0,  999.0,  999.0,  999.0,  999.0,  999.0,  999.0,  999.0,  999.0,  999.0,  999.0,  999.0,  999.0,  999.0,  999.0
2001/02/09 05:50,  999.0,   15.0,   18.1,   20.3,   21.5,   21.3,  999.0,   21.4,   21.1,   21.2,  999.0,  999.0,   20.5,   20.4,  999.0,   21.3,  999.0,  999.0,  999.0,   21.0,   20.8,  999.0,  999.0,   21.4,   21.0,   21.2,   20.7,  999.0,  999.0,  999.0,  999.0,  999.0,  999.0,  999.0,  999.0,  999.0,   21.2,  999.0,  999.0,   21.4,  999.0,  999.0,   21.4,  999.0,  999.0,  999.0,   21.3,   20.8,  999.0,  999.0,   21.1,  999.0,  999.0,  999.0,   20.5,   20.9,  999.0,  999.0
2001/02/09 06:00,  999.0,   15.5,   16.7,   21.4,   21.5,  999.0,   19.7,   21.3,   22.5,   22.9,   21.9,  999.0,  999.0,   21.3,  999.0,  999.0,  999.0,   21.1,  999.0,  999.0,   21.2,   20.9,  999.0,  999.0,  999.0,  999.0,  999.0,   24.3,   21.3,   20.4,   21.8,  999.0,  999.0,  999.0,  999.0,  999.0,  999.0,  999.0,  999.0,  999.0,  999.0,  999.0,  999.0,  999.0,  999.0,  999.0,  999.0,  999.0,  999.0,  999.0,  999.0,  999.0,  999.0,  999.0,  999.0,  999.0,  999.0,  999.0
2001/02/09 06:10,  999.0,   14.5,   18.1,   20.7,   20.8,   19.6,   20.9,   21.0,   22.0,   23.3,  999.0,  999.0,   19.7,  999.0,  999.0,  999.0,   21.9,   21.9,  999.0,  999.0,   21.5,  999.0,  999.0,  999.0,   20.9,   20.6,  999.0,   23.2,  999.0,  999.0,  999.0,   20.6,  999.0,  999.0,  999.0,  999.0,  999.0,  999.0,  999.0,  999.0,  999.0,  999.0,  999.0,  999.0,  999.0,  999.0,  999.0,  999.0,  999.0,  999.0,  999.0,  999.0,  999.0,  999.0,  999.0,  999.0,  999.0,  999.0
2001/02/09 06:20,  999.0,   12.1,   18.9,   20.7,   20.8,   20.1,   20.7,   21.2,   21.8,   23.5,   24.2,  999.0,   21.6,  999.0,   21.6,   21.6,  999.0,   22.0,   21.5,  999.0,  999.0,  999.0,  999.0,   21.0,   21.7,  999.0,   20.9,   22.0,   21.5,   22.1,  999.0,   21.1,  999.0,  999.0,   20.5,   20.9,   21.0,  999.0,   20.6,  999.0,  999.0,  999.0,  999.0,   21.1,  999.0,   21.2,  999.0,  999.0,   21.0,   20.5,   20.5,  999.0,   20.4,  999.0,   20.4,   20.3,  999.0,  999.0
2001/02/09 06:30,  999.0,   14.8,   18.0,   20.6,   21.7,   21.0,   21.3,   20.9,   23.5,   21.2,   21.1,  999.0,   21.0,   21.1,   20.7,   21.0,   21.2,   21.4,   20.9,   21.4,   21.5,   20.7,   20.5,  999.0,  999.0,   21.2,  999.0,  999.0,   21.0,   20.5,   20.5,   21.4,   20.6,  999.0,   20.9,  999.0,   21.0,  999.0,   21.2,  999.0,  999.0,   20.9,   20.7,   20.8,  999.0,   20.7,   20.6,   20.8,   20.6,   20.7,  999.0,   20.4,   20.4,   20.6,   20.6,  999.0,   20.7,   20.2
2001/02/09 06:40,  999.0,   14.6,   16.7,   19.2,   21.3,   21.1,   21.3,   22.0,   21.3,   22.1,   21.3,  999.0,  999.0,   21.4,   21.1,   21.3,   21.5,   21.7,  999.0,   21.5,   22.2,   22.4,  999.0,   21.8,  999.0,  999.0,  999.0,  999.0,  999.0,  999.0,  999.0,   21.3,  999.0,   20.6,  999.0,   20.9,  999.0,  999.0,   21.7,  999.0,  999.0,  999.0,   22.5,   22.1,   22.2,  999.0,   22.1,  999.0,  999.0,  999.0,   21.1,  999.0,  999.0,   21.1,  999.0,  999.0,  999.0,  999.0
2001/02/09 06:50,  999.0,   11.4,   17.7,   19.6,   20.7,   21.0,   21.1,   21.2,   21.2,   18.8,   21.2,   21.8,   21.1,   21.3,   20.7,   21.7,  999.0,  999.0,  999.0,  999.0,   21.6,  999.0,  999.0,   20.9,  999.0,  999.0,  999.0,  999.0,   21.1,   21.8,  999.0,  999.0,  999.0,  999.0,  999.0,  999.0,  999.0,  999.0,  999.0,  999.0,  999.0,  999.0,  999.0,  999.0,  999.0,  999.0,  999.0,  999.0,  999.0,  999.0,  999.0,  999.0,  999.0,  999.0,  999.0,  999.0,  999.0,  999.0
2001/02/09 07:00,  999.0,   13.2,   17.4,   19.0,   19.4,   20.7,   21.0,   21.4,   21.2,   22.1,   21.0,   21.6,   21.0,   20.2,   20.3,  999.0,   20.7,   21.5,   20.3,   20.7,   20.5,   21.0,  999.0,   20.9,   20.7,   20.9,   20.7,   21.3,   21.4,  999.0,  999.0,  999.0,  999.0,  999.0,   21.1,  999.0,  999.0,   21.8,  999.0,   22.0,  999.0,   20.9,   21.5,   21.6,  999.0,  999.0,   21.5,  999.0,   21.1,  999.0,   20.9,  999.0,  999.0,  999.0,  999.0,  999.0,  999.0,  999.0
2001/02/09 07:10,  999.0,   16.1,   18.7,   21.0,   21.2,   21.6,   21.7,   21.7,   21.5,   21.2,   21.5,  999.0,   21.1,  999.0,   21.6,   22.1,   20.9,   21.0,  999.0,  999.0,  999.0,   20.8,  999.0,  999.0,  999.0,  999.0,   20.7,   20.2,   21.2,  999.0,   20.6,  999.0,  999.0,  999.0,   20.4,   21.0,  999.0,   21.4,  999.0,  999.0,   19.9,   21.1,  999.0,  999.0,   20.7,   20.7,  999.0,  999.0,   20.7,   20.3,   20.7,  999.0,  999.0,  999.0,  999.0,  999.0,   21.6,   20.9
2001/02/09 07:20,  999.0,   14.7,   17.5,   20.5,   21.0,   20.6,   21.5,   19.9,   21.1,  999.0,   20.5,  999.0,   21.2,   21.5,  999.0,  999.0,   20.5,  999.0,  999.0,  999.0,  999.0,  999.0,  999.0,  999.0,   20.3,   21.4,  999.0,  999.0,  999.0,  999.0,   20.7,   19.8,   19.8,   19.7,  999.0,  999.0,   20.8,   19.8,   19.7,  999.0,   19.7,   19.7,  999.0,   19.5,  999.0,  999.0,   19.0,  999.0,   19.6,  999.0,  999.0,  999.0,  999.0,   18.5,   19.3,  999.0,  999.0,   18.2
2001/02/09 07:30,  999.0,   12.8,   14.9,   17.2,   14.3,   21.1,   20.3,   10.8,  999.0,  999.0,   11.0,  999.0,  999.0,   20.6,  999.0,  999.0,  999.0,  999.0,  999.0,  999.0,  999.0,  999.0,  999.0,  999.0,  999.0,  999.0,  999.0,  999.0,  999.0,  999.0,  999.0,  999.0,  999.0,  999.0,  999.0,  999.0,  999.0,  999.0,  999.0,  999.0,  999.0,  999.0,  999.0,  999.0,  999.0,  999.0,  999.0,  999.0,  999.0,  999.0,  999.0,  999.0,  999.0,  999.0,  999.0,  999.0,  999.0,  999.0
2001/02/09 07:40,  999.0,   16.4,   18.8,   19.8,   20.2,   20.9,   21.8,   21.1,   21.7,   21.6,   21.3,  999.0,   21.2,   21.8,  999.0,   21.5,  999.0,  999.0,   21.1,  999.0,  999.0,  999.0,  999.0,  999.0,  999.0,  999.0,  999.0,  999.0,  999.0,  999.0,  999.0,  999.0,  999.0,  999.0,  999.0,  999.0,  999.0,  999.0,  999.0,  999.0,  999.0,  999.0,  999.0,  999.0,  999.0,  999.0,  999.0,  999.0,  999.0,  999.0,  999.0,  999.0,  999.0,  999.0,  999.0,  999.0,  999.0,  999.0
2001/02/09 07:50,  999.0,   11.1,   12.1,   13.9,   10.6,   -0.1,   14.5,    0.3,   10.8,  999.0,   10.5,   21.1,  999.0,  999.0,   21.6,   21.7,  999.0,   20.3,   20.8,   21.4,   22.1,  999.0,  999.0,  999.0,  999.0,  999.0,  999.0,  999.0,  999.0,  999.0,  999.0,  999.0,  999.0,  999.0,  999.0,  999.0,    1.0,  999.0,  999.0,  999.0,  999.0,  999.0,  999.0,  999.0,  999.0,  999.0,  999.0,  999.0,  999.0,  999.0,  999.0,  999.0,  999.0,  999.0,  999.0,  999.0,  999.0,  999.0
2001/02/09 08:00,  999.0,   13.4,   15.5,   15.7,   13.9,   21.4,   14.3,   11.4,   16.3,   21.6,   21.0,   10.0,   21.1,  999.0,  999.0,  999.0,  999.0,   20.8,  999.0,  999.0,  999.0,  999.0,   21.3,   21.2,   21.1,   21.3,  999.0,   21.8,  999.0,   22.2,   22.0,   22.1,  999.0,   22.9,   22.6,   21.6,  999.0,  999.0,  999.0,  999.0,  999.0,  999.0,  999.0,  999.0,  999.0,  999.0,  999.0,  999.0,  999.0,  999.0,  999.0,  999.0,  999.0,  999.0,  999.0,  999.0,  999.0,  999.0
2001/02/09 08:10,  999.0,   13.5,   18.3,   19.8,   20.7,   22.2,   20.7,  999.0,   21.5,  999.0,   21.0,   21.7,   20.1,   21.0,   19.8,  999.0,   20.2,  999.0,  999.0,  999.0,  999.0,   18.8,  999.0,  999.0,   20.8,  999.0,  999.0,  999.0,  999.0,  999.0,  999.0,  999.0,  999.0,  999.0,  999.0,  999.0,  999.0,  999.0,  999.0,  999.0,  999.0,  999.0,  999.0,  999.0,  999.0,  999.0,  999.0,  999.0,  999.0,  999.0,  999.0,  999.0,  999.0,  999.0,  999.0,  999.0,  999.0,  999.0
2001/02/09 08:20,  999.0,    0.2,    4.5,    6.0,    0.2,    7.0,   10.4,   -0.2,   21.2,  999.0,  999.0,   21.1,  999.0,  999.0,  999.0,  999.0,  999.0,  999.0,  999.0,  999.0,  999.0,  999.0,  999.0,  999.0,  999.0,  999.0,  999.0,  999.0,  999.0,  999.0,  999.0,  999.0,  999.0,  999.0,  999.0,  999.0,  999.0,  999.0,  999.0,  999.0,  999.0,  999.0,  999.0,  999.0,  999.0,  999.0,  999.0,  999.0,  999.0,  999.0,  999.0,  999.0,  999.0,  999.0,  999.0,  999.0,  999.0,  999.0
2001/02/09 08:30,  999.0,    4.1,    7.8,    9.6,   10.2,   -0.0,  999.0,  999.0,   20.3,   20.6,   21.4,   20.7,  999.0,   20.9,   21.5,   20.9,  999.0,   20.8,  999.0,   20.7,   21.1,  999.0,   20.9,   21.1,   20.8,   22.2,   21.8,  999.0,  999.0,   21.6,  999.0,  999.0,   21.7,  999.0,   21.4,  999.0,  999.0,  999.0,  999.0,  999.0,  999.0,  999.0,  999.0,  999.0,  999.0,  999.0,  999.0,  999.0,  999.0,  999.0,  999.0,  999.0,  999.0,  999.0,  999.0,  999.0,  999.0,  999.0
2001/02/09 08:40,  999.0,  999.0,  999.0,  999.0,  999.0,  999.0,  999.0,  999.0,  999.0,  999.0,  999.0,  999.0,  999.0,  999.0,  999.0,  999.0,  999.0,  999.0,  999.0,  999.0,  999.0,  999.0,  999.0,  999.0,  999.0,  999.0,  999.0,  999.0,  999.0,  999.0,  999.0,  999.0,  999.0,  999.0,  999.0,  999.0,  999.0,  999.0,  999.0,  999.0,  999.0,  999.0,  999.0,  999.0,  999.0,  999.0,  999.0,  999.0,  999.0,  999.0,  999.0,  999.0,  999.0,  999.0,  999.0,  999.0,  999.0,  999.0
2001/02/09 08:50,  999.0,    8.9,   12.9,   13.2,   14.0,   15.2,   16.9,   17.8,  999.0,   17.1,   21.4,  999.0,   20.6,  999.0,  999.0,  999.0,   18.9,   18.8,   19.0,   20.7,   20.3,  999.0,  999.0,   23.1,  999.0,  999.0,  999.0,  999.0,  999.0,  999.0,  999.0,  999.0,  999.0,  999.0,  999.0,  999.0,  999.0,  999.0,  999.0,  999.0,  999.0,  999.0,  999.0,  999.0,  999.0,  999.0,  999.0,  999.0,  999.0,  999.0,  999.0,  999.0,  999.0,  999.0,  999.0,  999.0,  999.0,  999.0
2001/02/09 09:00,  999.0,  999.0,  999.0,  999.0,  999.0,  999.0,  999.0,  999.0,  999.0,  999.0,  999.0,  999.0,  999.0,  999.0,  999.0,  999.0,  999.0,  999.0,  999.0,  999.0,  999.0,  999.0,  999.0,  999.0,  999.0,  999.0,  999.0,  999.0,  999.0,  999.0,  999.0,  999.0,  999.0,  999.0,  999.0,  999.0,  999.0,  999.0,  999.0,  999.0,  999.0,  999.0,  999.0,  999.0,  999.0,  999.0,  999.0,  999.0,  999.0,  999.0,  999.0,  999.0,  999.0,  999.0,  999.0,  999.0,  999.0,  999.0
2001/02/09 09:10,  999.0,   11.3,   12.5,   12.6,   12.4,   13.9,   14.2,   11.0,   14.8,   16.9,   18.4,   17.6,   18.1,   19.6,   21.8,   22.5,   22.7,   21.4,   23.0,   21.5,   20.2,   21.8,   19.4,   20.1,  999.0,   18.9,   18.8,  999.0,  999.0,   22.1,  999.0,   20.9,   20.0,   20.2,  999.0,  999.0,  999.0,  999.0,  999.0,  999.0,  999.0,  999.0,  999.0,  999.0,  999.0,  999.0,  999.0,  999.0,  999.0,  999.0,  999.0,  999.0,  999.0,  999.0,  999.0,  999.0,  999.0,  999.0
2001/02/09 09:20,  999.0,   10.7,   11.0,   13.0,   13.7,   13.9,   15.2,   15.2,   17.0,   20.4,   21.7,   21.3,   22.7,   22.8,   22.5,   22.7,   22.0,   22.1,   21.7,   21.6,   21.5,   21.7,   22.6,   24.4,  999.0,   22.1,   22.7,  999.0,  999.0,   21.8,   22.1,  999.0,   21.9,   20.3,   20.3,   19.8,   22.1,  999.0,  999.0,  999.0,  999.0,   17.8,  999.0,   16.4,   15.8,   15.2,  999.0,   14.9,  999.0,  999.0,   12.6,  999.0,  999.0,  999.0,  999.0,  999.0,  999.0,  999.0
2001/02/09 09:30,  999.0,   13.9,   15.8,   16.4,   17.7,   18.5,   19.5,   19.7,   20.3,   21.6,   22.0,   21.9,   22.8,   23.3,   25.6,   24.8,   23.9,   23.2,   23.3,   23.6,   22.3,   22.3,   23.7,   22.4,   23.9,   23.4,   24.0,   21.9,   22.1,  999.0,  999.0,  999.0,   22.8,  999.0,  999.0,  999.0,  999.0,   21.6,  999.0,  999.0,  999.0,  999.0,  999.0,  999.0,  999.0,  999.0,  999.0,  999.0,  999.0,  999.0,  999.0,  999.0,  999.0,  999.0,  999.0,  999.0,  999.0,  999.0
2001/02/09 09:40,  999.0,   11.8,   15.9,   17.0,   18.7,   18.4,   17.9,   18.2,   19.2,   20.7,   21.8,   22.6,   24.4,   25.0,   26.1,   24.9,   25.1,   24.4,  999.0,   23.9,  999.0,   20.9,   21.2,   21.2,   21.4,   20.9,   20.9,   20.7,   22.6,  999.0,   24.0,  999.0,  999.0,  999.0,  999.0,  999.0,  999.0,  999.0,  999.0,  999.0,  999.0,  999.0,  999.0,  999.0,  999.0,  999.0,  999.0,  999.0,  999.0,  999.0,  999.0,  999.0,  999.0,  999.0,  999.0,  999.0,  999.0,  999.0
2001/02/09 09:50,  999.0,    8.2,    9.9,   10.5,   13.6,   15.6,   17.7,   17.2,   18.6,   19.0,   20.2,   21.3,   22.8,   23.8,   24.6,   25.7,   25.9,   25.9,   26.4,   27.3,   27.5,   25.7,   24.6,   25.6,   22.8,   21.9,   21.5,   20.2,   26.6,   29.1,   23.1,   23.0,  999.0,   24.9,   26.1,   22.4,   21.5,   17.8,   16.3,   23.6,   12.2,   25.1,  999.0,   20.4,   20.6,   20.7,  999.0,   24.9,   25.6,   18.9,  999.0,  999.0,   22.6,    9.0,    9.4,   10.1,   21.0,   15.1
2001/02/09 10:00,  999.0,    6.9,    9.5,   10.9,   13.4,   12.2,   13.3,   13.6,   12.9,   13.0,   14.1,   16.4,   19.0,   21.0,   22.3,   24.8,   25.8,   25.9,   26.3,   25.2,   24.0,   20.5,   21.3,   23.5,   22.9,   21.7,   22.3,   23.3,   22.6,   21.7,   19.0,   17.3,   17.3,   16.7,   15.0,   14.0,   13.2,   12.7,   12.2,   11.8,   11.3,    9.4,    9.4,   10.0,    9.6,   12.8,    9.1,    8.4,    7.4,    7.1,    8.3,    7.9,    8.7,    9.1,    9.8,   10.1,   11.5,   12.2
2001/02/09 10:10,  999.0,    9.5,   11.4,   13.7,   15.0,   16.8,   16.6,   17.1,   17.7,   16.9,   18.2,   19.9,   21.7,   23.3,   25.1,   25.4,  999.0,   23.4,  999.0,   22.3,   23.8,  999.0,   25.7,  999.0,  999.0,  999.0,   31.7,   21.1,  999.0,   22.8,  999.0,  999.0,   21.2,   20.9,   18.2,   18.6,   14.4,   15.0,   14.3,   10.2,    9.4,    7.4,    5.0,    6.9,    7.8,    8.4,    7.2,   20.5,  999.0,  999.0,  999.0,  999.0,  999.0,  999.0,  999.0,  999.0,  999.0,  999.0
2001/02/09 10:20,  999.0,    9.2,   10.5,   12.2,   13.6,   14.8,   16.3,   17.5,   17.6,   18.9,   19.3,   20.8,   22.6,   24.3,   26.6,   24.8,   24.7,   22.1,   19.5,   20.6,   23.6,   23.4,   18.7,   20.1,  999.0,   19.6,   19.0,   19.5,   19.0,   18.8,  999.0,   18.1,   18.0,  999.0,  999.0,   17.8,  999.0,  999.0,  999.0,   16.8,  999.0,  999.0,  999.0,  999.0,  999.0,  999.0,  999.0,  999.0,  999.0,  999.0,  999.0,  999.0,  999.0,  999.0,  999.0,  999.0,  999.0,  999.0
2001/02/09 10:30,  999.0,    8.4,    9.8,   10.3,   11.3,   13.0,   13.9,   15.6,   17.4,   18.1,   19.6,   20.7,   22.3,   24.9,   24.7,   24.1,   22.3,   20.6,   20.2,   19.9,   20.1,   20.0,   20.5,   22.1,   22.1,  999.0,  999.0,   20.2,  999.0,   20.0,  999.0,   19.0,  999.0,  999.0,   18.2,  999.0,  999.0,  999.0,  999.0,  999.0,  999.0,  999.0,  999.0,   15.5,  999.0,  999.0,   14.6,   14.2,   14.0,  999.0,  999.0,  999.0,  999.0,  999.0,  999.0,  999.0,  999.0,  999.0
2001/02/09 10:40,  999.0,    8.6,   10.7,    8.6,    9.0,   10.3,   10.9,   11.1,   12.7,   15.3,   17.7,   17.4,   20.4,   22.4,   24.4,   22.9,   21.8,   20.6,   21.6,   22.5,   22.0,   21.8,   21.8,   21.8,   20.8,   20.7,  999.0,  999.0,   21.1,   21.9,   21.1,   21.4,   23.5,   21.4,  999.0,  999.0,  999.0,  999.0,  999.0,  999.0,  999.0,  999.0,  999.0,  999.0,  999.0,  999.0,  999.0,  999.0,  999.0,  999.0,  999.0,  999.0,  999.0,  999.0,  999.0,  999.0,  999.0,  999.0
2001/02/09 10:50,  999.0,    7.1,    9.0,    8.3,    7.0,    9.4,   10.9,   12.4,   13.4,   14.1,   16.3,   19.0,   22.1,   24.2,   25.3,   23.3,   22.4,   21.3,   19.8,   20.2,   19.5,   18.6,  999.0,  999.0,  999.0,  999.0,  999.0,  999.0,  999.0,  999.0,  999.0,  999.0,  999.0,  999.0,  999.0,  999.0,  999.0,  999.0,  999.0,  999.0,  999.0,  999.0,  999.0,  999.0,  999.0,  999.0,  999.0,  999.0,  999.0,  999.0,  999.0,  999.0,  999.0,  999.0,  999.0,  999.0,  999.0,  999.0
2001/02/09 11:00,  999.0,    5.5,    6.6,    7.3,    6.8,    9.5,   10.2,   10.9,   12.1,   14.2,   15.4,   17.5,   19.4,   21.5,   22.6,   20.4,   17.8,   20.5,   21.0,   20.7,  999.0,   22.8,   18.1,   23.6,   23.9,  999.0,   23.7,   18.7,  999.0,   24.3,   19.0,  999.0,  999.0,  999.0,  999.0,  999.0,  999.0,   20.0,   19.1,   19.6,   19.5,  999.0,  999.0,  999.0,   20.2,  999.0,   20.5,  999.0,  999.0,  999.0,  999.0,  999.0,  999.0,  999.0,  999.0,  999.0,  999.0,  999.0
2001/02/09 11:10,  999.0,    7.4,    8.0,   10.0,   10.8,   11.0,   11.7,   12.5,   12.4,   13.3,   14.8,   16.4,   18.6,   20.7,   20.3,  999.0,  999.0,  999.0,  999.0,  999.0,  999.0,  999.0,  999.0,  999.0,  999.0,  999.0,  999.0,  999.0,  999.0,  999.0,  999.0,  999.0,  999.0,  999.0,  999.0,  999.0,  999.0,  999.0,  999.0,  999.0,  999.0,  999.0,  999.0,  999.0,  999.0,  999.0,  999.0,  999.0,  999.0,  999.0,  999.0,  999.0,  999.0,  999.0,  999.0,  999.0,  999.0,  999.0
2001/02/09 11:20,  999.0,    9.8,    9.9,    8.8,    7.9,    7.9,    8.2,    9.5,   10.5,   10.3,   11.5,   14.4,   16.0,   17.1,   16.4,   10.9,  999.0,  999.0,   15.6,   14.8,  999.0,  999.0,  999.0,  999.0,  999.0,  999.0,  999.0,  999.0,  999.0,  999.0,  999.0,  999.0,  999.0,  999.0,  999.0,  999.0,  999.0,  999.0,  999.0,  999.0,  999.0,  999.0,  999.0,  999.0,  999.0,  999.0,  999.0,  999.0,  999.0,  999.0,  999.0,  999.0,  999.0,  999.0,  999.0,  999.0,  999.0,  999.0
2001/02/09 11:30,  999.0,    5.7,    5.6,   10.3,    7.7,   13.9,   10.8,    9.4,   12.4,    9.0,   10.9,   15.8,   18.2,   21.6,   18.3,   16.9,  999.0,  999.0,  999.0,  999.0,  999.0,  999.0,  999.0,  999.0,  999.0,  999.0,  999.0,  999.0,  999.0,  999.0,  999.0,  999.0,  999.0,  999.0,  999.0,  999.0,  999.0,  999.0,  999.0,  999.0,  999.0,  999.0,  999.0,  999.0,  999.0,  999.0,  999.0,  999.0,  999.0,  999.0,  999.0,  999.0,  999.0,  999.0,  999.0,  999.0,  999.0,  999.0
2001/02/09 11:40,  999.0,   10.2,   10.3,    7.7,    9.4,   10.3,    9.5,   10.3,   10.9,   11.9,   13.5,   15.7,   18.4,   20.8,   19.6,  999.0,  999.0,  999.0,  999.0,  999.0,  999.0,  999.0,  999.0,  999.0,  999.0,  999.0,  999.0,  999.0,  999.0,  999.0,  999.0,  999.0,  999.0,  999.0,  999.0,  999.0,  999.0,  999.0,  999.0,  999.0,  999.0,  999.0,  999.0,  999.0,  999.0,  999.0,  999.0,  999.0,  999.0,  999.0,  999.0,  999.0,  999.0,  999.0,  999.0,  999.0,  999.0,  999.0
2001/02/09 11:50,  999.0,    9.5,   11.8,   13.0,   13.6,   12.7,   11.0,   10.6,   10.6,   12.3,   15.7,   16.8,   18.0,   18.8,   19.1,   20.8,   20.3,   19.2,   19.4,  999.0,  999.0,  999.0,  999.0,  999.0,  999.0,  999.0,  999.0,  999.0,  999.0,  999.0,  999.0,  999.0,  999.0,  999.0,  999.0,  999.0,  999.0,  999.0,  999.0,  999.0,  999.0,  999.0,  999.0,  999.0,  999.0,  999.0,  999.0,  999.0,  999.0,  999.0,  999.0,  999.0,  999.0,  999.0,  999.0,  999.0,  999.0,  999.0
2001/02/09 12:00,  999.0,   11.8,   10.7,   13.4,   12.0,   10.1,   11.3,   13.1,   11.9,   11.3,   12.8,   13.5,   15.8,   18.1,   20.5,   21.8,   20.6,  999.0,  999.0,   21.2,  999.0,   26.5,  999.0,  999.0,   27.6,   27.9,  999.0,   29.0,   30.0,   29.1,   30.4,  999.0,   30.7,  999.0,   31.4,  999.0,  999.0,   33.2,  999.0,  999.0,  999.0,   34.8,  999.0,   36.1,  999.0,   36.5,  999.0,  999.0,  999.0,  999.0,   39.0,  999.0,  999.0,   40.4,  999.0,  999.0,   42.4,  999.0
2001/02/09 12:10,  999.0,    8.8,   10.1,   12.0,   11.5,   13.8,   13.7,   12.9,   14.2,   14.5,   10.9,   12.5,   13.1,   12.2,   13.7,   15.4,   18.3,   15.6,   18.0,  999.0,  999.0,  999.0,  999.0,  999.0,  999.0,  999.0,  999.0,  999.0,  999.0,  999.0,  999.0,  999.0,  999.0,  999.0,  999.0,  999.0,  999.0,  999.0,  999.0,  999.0,  999.0,  999.0,  999.0,  999.0,  999.0,  999.0,  999.0,  999.0,  999.0,  999.0,  999.0,  999.0,  999.0,  999.0,  999.0,  999.0,  999.0,  999.0
2001/02/09 12:20,  999.0,    8.2,    9.9,   10.4,    9.5,    9.6,   12.2,   12.0,   10.6,    9.7,   10.6,   12.0,   14.1,   14.9,   15.1,   16.4,   17.8,   21.3,   24.4,   34.0,   31.9,   23.9,   20.9,   20.5,   21.0,   19.1,  999.0,   20.1,   21.6,   20.1,  999.0,   20.2,   20.1,   18.9,   19.1,   18.7,   21.4,  999.0,   19.1,   21.0,   18.5,   21.3,  999.0,   21.6,   20.0,   22.1,  999.0,   18.0,   19.4,  999.0,   19.3,   18.4,   20.1,   22.0,   21.9,   17.9,  999.0,   19.8
2001/02/09 12:30,  999.0,   10.1,   11.5,   11.3,   11.1,    8.2,    9.7,   10.1,   11.4,   12.1,   12.0,   12.9,   14.2,   15.7,   18.8,   18.5,   18.6,   18.5,   17.2,   20.5,   24.2,   27.1,  999.0,   17.8,  999.0,   16.5,   18.3,   18.7,  999.0,  999.0,   19.5,   19.4,  999.0,  999.0,  999.0,  999.0,  999.0,  999.0,   21.0,  999.0,  999.0,  999.0,  999.0,  999.0,  999.0,  999.0,  999.0,  999.0,  999.0,  999.0,  999.0,  999.0,  999.0,  999.0,  999.0,  999.0,  999.0,  999.0
2001/02/09 12:40,  999.0,  999.0,   13.8,   12.6,   11.6,   14.2,   14.1,   12.7,   12.6,   13.6,   13.7,   14.6,   15.3,   15.5,   15.4,   20.2,   19.6,   22.2,   28.3,   29.7,  999.0,  999.0,  999.0,  999.0,  999.0,  999.0,  999.0,  999.0,  999.0,  999.0,  999.0,  999.0,  999.0,  999.0,  999.0,  999.0,  999.0,  999.0,  999.0,  999.0,  999.0,  999.0,  999.0,  999.0,  999.0,  999.0,  999.0,  999.0,  999.0,  999.0,  999.0,  999.0,  999.0,  999.0,  999.0,  999.0,  999.0,  999.0
2001/02/09 12:50,  999.0,  999.0,   12.1,    9.1,   12.7,   15.6,   10.3,   10.1,   11.7,   13.1,   13.7,   15.4,   16.5,   18.1,   20.4,   23.6,   20.0,  999.0,  999.0,  999.0,  999.0,  999.0,  999.0,  999.0,  999.0,  999.0,  999.0,  999.0,  999.0,  999.0,  999.0,  999.0,  999.0,  999.0,  999.0,  999.0,  999.0,  999.0,  999.0,  999.0,  999.0,  999.0,  999.0,  999.0,  999.0,  999.0,  999.0,  999.0,  999.0,  999.0,  999.0,  999.0,  999.0,  999.0,  999.0,  999.0,  999.0,  999.0
2001/02/09 13:00,  999.0,  999.0,   14.6,   13.0,   13.7,   12.6,   12.6,   12.4,   12.9,   13.6,   14.2,   15.5,   17.0,   18.3,   20.6,   21.9,   21.7,  999.0,   19.6,   19.9,   19.3,  999.0,  999.0,  999.0,  999.0,   19.9,   19.8,  999.0,  999.0,  999.0,  999.0,  999.0,   20.2,  999.0,   20.2,   20.0,   20.3,  999.0,  999.0,  999.0,  999.0,  999.0,   20.2,  999.0,   21.0,  999.0,  999.0,  999.0,  999.0,  999.0,  999.0,   20.6,  999.0,  999.0,   20.6,  999.0,   21.5,  999.0
2001/02/09 13:10,  999.0,    0.0,    6.9,    6.0,    4.9,   10.7,   11.4,   12.8,   12.7,   12.9,   12.9,   13.6,   14.8,   17.2,   19.0,   20.6,   21.7,   22.8,   20.0,   20.3,   20.1,  999.0,   19.4,   19.4,   20.3,  999.0,  999.0,  999.0,  999.0,   19.6,  999.0,   22.1,  999.0,  999.0,  999.0,   20.7,   19.4,   22.7,   24.1,   19.6,  999.0,  999.0,  999.0,   19.6,   19.1,  999.0,   21.4,  999.0,   19.5,  999.0,   19.4,  999.0,  999.0,   19.4,  999.0,  999.0,  999.0,  999.0
2001/02/09 13:20,  999.0,    0.0,    0.2,    5.3,    9.9,   10.6,   13.8,   12.8,   12.1,   12.7,   13.7,   15.0,   16.2,   17.5,   19.5,   21.6,   22.4,   24.4,   18.9,   19.0,   19.5,   21.0,   18.8,   19.7,   20.4,   19.3,   19.0,   20.9,   21.5,   19.1,   20.3,  999.0,  999.0,  999.0,   21.9,   21.6,   18.5,   20.7,  999.0,  999.0,   20.5,  999.0,   21.6,   20.1,   19.8,   21.4,   22.8,   22.1,   19.7,   20.6,  999.0,   20.1,   20.0,  999.0,   19.8,   19.1,   19.4,  999.0
2001/02/09 13:30,  999.0,   -1.3,    1.5,   12.9,   11.7,   13.1,   15.0,   12.3,   13.2,   12.6,   14.3,   16.0,   16.9,   18.4,   20.4,   20.3,   19.3,   23.8,   20.2,  999.0,  999.0,   19.5,   21.0,  999.0,  999.0,  999.0,  999.0,  999.0,  999.0,  999.0,  999.0,  999.0,  999.0,  999.0,  999.0,  999.0,  999.0,  999.0,  999.0,  999.0,  999.0,  999.0,  999.0,  999.0,  999.0,  999.0,  999.0,  999.0,  999.0,  999.0,  999.0,  999.0,  999.0,  999.0,  999.0,  999.0,  999.0,  999.0
2001/02/09 13:40,  999.0,    7.4,   14.0,    7.4,    8.1,   12.2,   13.9,   14.1,   14.1,   15.2,   14.4,   16.5,   17.4,   21.0,   21.1,   20.4,   21.8,   21.3,   21.9,   21.9,   19.6,   20.9,   20.4,   19.8,   20.4,   20.6,  999.0,   20.0,   20.6,  999.0,   18.2,   18.3,   20.3,   18.7,   17.7,   18.5,  999.0,   18.4,  999.0,  999.0,   18.5,  999.0,   18.8,  999.0,  999.0,  999.0,   19.3,   19.0,  999.0,  999.0,  999.0,  999.0,  999.0,  999.0,   18.6,   18.1,  999.0,  999.0
2001/02/09 13:50,  999.0,   -0.1,    0.0,    6.7,   11.9,    9.0,   13.8,   15.1,   15.8,   17.3,   18.4,   17.9,   19.2,   20.2,   20.6,   21.3,   21.3,   21.2,   22.3,   22.7,   21.7,   21.9,   21.7,   21.8,   21.8,  999.0,   20.7,   20.8,   20.5,   19.0,   18.2,   20.2,   19.7,   19.2,  999.0,  999.0,  999.0,   19.7,  999.0,  999.0,   18.9,  999.0,   18.8,   18.3,   18.9,  999.0,  999.0,  999.0,  999.0,   17.3,   17.5,  999.0,  999.0,  999.0,  999.0,  999.0,  999.0,  999.0
2001/02/09 14:00,  999.0,   -0.0,    0.1,  999.0,  999.0,  999.0,   14.2,   14.2,   14.7,   14.4,   14.2,   15.5,   17.9,   20.0,   20.9,   21.9,   21.3,   22.3,   20.8,   21.8,   20.4,   21.8,   21.1,   21.1,   21.7,   20.6,   20.6,  999.0,   20.7,   20.6,   20.6,   21.2,   20.6,   20.4,   20.8,   19.9,  999.0,   20.4,  999.0,   19.5,   19.3,  999.0,  999.0,  999.0,   19.3,  999.0,   18.5,  999.0,  999.0,  999.0,  999.0,  999.0,  999.0,  999.0,  999.0,  999.0,  999.0,  999.0
2001/02/09 14:10,  999.0,    0.5,    8.0,    8.8,   12.5,   14.3,   14.6,   14.6,   14.5,   14.3,   14.6,  999.0,   19.1,   18.6,   19.7,   20.7,   21.6,   20.4,   21.1,   22.2,   20.5,   23.4,   23.8,   23.9,   24.6,   27.4,   28.4,   28.1,   28.5,   29.8,  999.0,   31.3,   32.4,   33.2,  999.0,   35.0,   35.4,   36.0,   36.8,   38.4,   38.9,   39.0,   40.3,   40.9,  999.0,   41.6,   41.4,   42.1,  999.0,  999.0,   42.2,  999.0,  999.0,   35.1,  999.0,   32.0,   41.2,    2.3
2001/02/09 14:20,  999.0,   -0.2,    7.6,   11.2,   12.3,   12.5,   12.8,   14.4,   14.4,   14.1,   14.8,   14.4,   16.0,   17.5,   19.2,   21.5,   21.8,   17.7,   21.5,   20.0,   21.3,   18.6,  999.0,   17.7,   17.9,  999.0,   18.1,   19.8,   18.3,  999.0,   16.8,  999.0,   17.5,  999.0,  999.0,   16.9,  999.0,   16.8,   17.1,  999.0,  999.0,  999.0,  999.0,  999.0,  999.0,  999.0,  999.0,  999.0,  999.0,  999.0,  999.0,  999.0,  999.0,  999.0,  999.0,  999.0,  999.0,  999.0
2001/02/09 14:30,  999.0,    0.1,   -0.1,    4.1,    5.9,    8.9,   11.3,   12.1,   13.0,   12.7,   12.6,   14.0,   16.0,   18.3,   20.8,   21.1,   22.9,   20.1,   21.6,  999.0,   21.0,   21.0,   21.4,   20.2,   21.5,   23.7,   28.1,   20.7,   29.7,   32.2,   33.6,   35.9,   36.8,  999.0,  999.0,   41.5,   40.9,   41.3,  999.0,  999.0,  999.0,   41.4,   42.2,   41.9,   41.2,   41.2,  999.0,  999.0,   42.1,  999.0,  999.0,   42.1,   41.9,   41.8,   42.2,  999.0,  999.0,  999.0
2001/02/09 14:40,  999.0,    9.6,  999.0,   10.6,   11.0,   11.3,   13.0,   14.5,   13.3,   12.9,   11.8,   14.2,   17.4,   18.9,   19.4,   21.0,   21.5,   21.7,   21.2,   20.3,   21.4,   21.3,   22.0,   21.9,   21.9,   22.6,   24.5,   22.1,   20.1,   26.5,   20.0,   30.1,   27.1,   25.0,   26.1,   32.4,   32.2,   41.9,   31.8,  999.0,   35.4,   36.5,   37.0,   40.9,   36.8,   38.7,  999.0,   36.1,   39.7,   40.5,   41.6,   39.5,   41.5,   41.8,   41.6,   41.8,   41.8,   42.0
2001/02/09 14:50,  999.0,  999.0,    8.4,   11.8,   11.3,   11.7,   11.0,   11.2,   12.2,   13.3,   15.0,   15.6,   16.9,   17.7,   19.6,   19.2,   20.5,   19.4,   18.3,   19.1,   21.6,   22.5,   22.9,   22.3,   23.6,   23.7,   25.0,   25.7,  999.0,   27.2,   29.0,   29.7,   30.8,   31.8,   32.4,   33.1,   34.1,   36.2,   37.4,   36.5,   38.1,   37.5,   40.9,   40.6,  999.0,   41.7,   42.0,  999.0,  999.0,   41.8,   41.6,   41.6,   42.5,   42.4,   42.5,   42.4,   42.4,   42.0
2001/02/09 15:00,  999.0,    5.5,    9.0,   12.4,   10.1,   12.1,   12.6,   14.6,   14.4,   15.2,   16.9,   19.1,   20.4,   20.1,   19.5,   20.6,   20.4,   20.5,   21.3,   23.3,   19.5,   22.8,   25.3,   25.2,  999.0,   27.7,  999.0,  999.0,   26.4,   29.9,   30.9,   28.5,   31.3,  999.0,   31.1,   32.9,   35.3,   33.7,   34.5,   36.9,   38.4,   37.0,  999.0,   39.7,   38.8,   41.2,   40.5,   41.4,   42.0,   41.1,   42.4,   41.5,   41.8,   41.8,  999.0,  999.0,  999.0,   42.4
2001/02/09 15:10,  999.0,    9.3,    8.4,   10.5,   12.8,   14.5,   13.5,   14.6,   16.1,   17.8,   18.5,   20.2,   20.6,   20.9,   21.5,   19.7,   19.0,   19.8,   18.8,   19.4,  999.0,   17.4,   20.0,   17.3,   20.9,   21.3,   23.2,   22.3,   27.9,  999.0,   25.3,   29.2,   31.9,   28.7,   34.6,  999.0,   37.2,   38.9,   38.0,   36.4,  999.0,   42.1,   41.6,  999.0,   40.2,   41.2,   41.5,   39.9,   41.6,   41.3,   41.3,   41.4,   42.0,   42.1,   42.5,  999.0,   42.5,   42.1
2001/02/09 15:20,  999.0,    7.2,    8.2,   11.6,   12.8,   13.8,   15.0,   16.1,   16.8,   18.5,   19.7,   21.1,   20.6,   22.3,  999.0,   19.5,   20.0,   21.3,   23.2,   20.7,   22.4,   19.2,   22.9,   22.6,   15.7,  999.0,   16.8,  999.0,  999.0,  999.0,   23.9,   25.6,   26.9,  999.0,  999.0,  999.0,  999.0,  999.0,  999.0,   38.9,  999.0,  999.0,  999.0,  999.0,  999.0,   42.6,   42.3,  999.0,  999.0,   42.0,  999.0,  999.0,  999.0,   42.5,  999.0,  999.0,  999.0,  999.0
2001/02/09 15:30,  999.0,    7.8,    9.3,   10.8,   12.8,   13.5,   14.2,   16.0,   17.1,   18.3,   19.9,   21.4,   22.0,   20.4,  999.0,   21.1,   21.4,   21.3,   20.8,   22.4,   26.8,  999.0,   16.1,   17.1,  999.0,  999.0,  999.0,   12.8,   11.6,  999.0,  999.0,  999.0,  999.0,  999.0,  999.0,  999.0,    3.3,  999.0,  999.0,  999.0,    0.7,    0.3,    0.3,  999.0,  999.0,    0.7,  999.0,  999.0,    0.0,  999.0,  999.0,    0.4,  999.0,  999.0,  999.0,  999.0,  999.0,  999.0
2001/02/09 15:40,  999.0,    9.1,   11.3,   12.3,   13.3,   14.3,   16.2,   17.6,   18.9,   19.9,   20.6,   21.3,   23.0,   17.5,   19.1,   17.6,   20.1,   14.9,  999.0,   20.6,   25.1,   24.4,   19.3,   18.7,   17.4,  999.0,   17.8,   15.8,   13.9,  999.0,    9.6,  999.0,  999.0,    4.1,    1.5,    1.1,    1.0,    1.1,    0.4,  999.0,  999.0,  999.0,  999.0,    0.3,  999.0,  999.0,  999.0,  999.0,  999.0,  999.0,  999.0,    0.4,  999.0,  999.0,  999.0,  999.0,  999.0,  999.0
2001/02/09 15:50,  999.0,   10.5,   11.9,   13.5,   14.7,   15.5,   18.2,   19.0,   19.5,   20.6,   21.0,   21.4,   21.0,   21.7,   21.4,   21.8,   22.8,   23.9,   24.5,   24.9,   28.5,   26.1,   18.0,   22.3,  999.0,   20.0,   29.5,   18.1,   29.9,   30.6,   31.4,  999.0,  999.0,  999.0,   33.6,  999.0,   34.8,  999.0,  999.0,   37.2,   37.0,  999.0,   39.1,   38.7,  999.0,  999.0,  999.0,  999.0,   41.4,   41.6,  999.0,  999.0,  999.0,  999.0,  999.0,   42.0,  999.0,   41.1
2001/02/09 16:00,  999.0,    9.8,   12.6,   13.6,   13.9,   15.1,   15.6,   16.7,   18.1,   19.3,   19.4,   19.9,   21.5,   21.6,   19.4,   20.3,   21.0,   23.9,   21.3,   24.8,   22.5,   20.1,  999.0,   28.1,   30.0,   30.2,   19.8,   21.9,   30.0,   25.8,   24.2,   30.1,   28.8,   27.6,   29.6,   30.2,   26.8,   26.9,   28.7,   31.9,   32.5,   29.9,  999.0,   30.3,  999.0,   30.9,   35.6,   35.8,   28.7,   37.3,   40.6,  999.0,   41.6,   39.6,   40.6,   42.5,  999.0,   41.9
2001/02/09 16:10,  999.0,    9.2,   10.8,   12.2,   12.8,   13.8,   15.2,   16.0,   16.6,   17.4,   18.2,   19.8,   20.1,   19.8,   19.4,   19.5,   18.1,   20.0,   21.0,   21.9,   21.8,   21.5,   23.9,   25.7,   22.4,   24.5,   27.2,   25.2,   26.6,   27.1,  999.0,  999.0,   30.2,   31.0,   30.0,  999.0,  999.0,   36.1,   33.3,   41.9,   37.9,   20.4,   24.6,   39.2,   25.6,   40.3,   42.5,  999.0,   41.7,   21.0,   42.0,   -0.3,   20.8,   41.9,  999.0,  999.0,   41.6,   20.1
2001/02/09 16:20,  999.0,   10.4,   10.6,   10.9,   12.0,   13.7,   14.9,   16.4,   16.9,   17.8,   18.6,   20.0,   19.9,   20.1,   20.5,   20.4,   21.3,   21.3,   22.3,   22.2,   23.4,   24.8,   17.8,   19.5,   20.8,  999.0,   22.2,   23.1,   23.7,  999.0,   24.8,   26.2,   26.9,  999.0,   29.1,  999.0,   30.8,   31.4,   32.5,  999.0,   34.8,  999.0,   37.0,   35.9,   38.3,   40.5,   38.6,  999.0,  999.0,   40.6,   41.3,   41.4,   41.8,  999.0,  999.0,  999.0,   41.7,  999.0
2001/02/09 16:30,  999.0,   10.1,   10.7,   11.7,   12.6,   13.2,   13.9,   15.2,   16.4,   17.3,   17.8,   17.0,   18.3,   18.3,   18.8,   20.8,   21.7,   22.2,   23.8,   26.0,   24.5,   23.2,  999.0,  999.0,  999.0,   26.9,   26.1,   30.0,   30.9,   31.6,   33.0,   33.7,   35.6,   35.2,   36.5,   42.2,   37.5,   38.4,   40.2,   41.1,   41.4,   41.1,   41.7,  999.0,   41.7,   41.9,   41.5,   41.4,   41.9,   41.8,   41.7,   41.9,   42.6,  999.0,   41.8,   40.7,  999.0,   42.4
2001/02/09 16:40,  999.0,    9.3,   10.7,   11.4,   12.0,   12.9,   13.6,   13.9,   14.6,   15.0,   15.6,   16.1,   16.8,   18.1,   21.0,   22.3,   21.7,   21.7,   23.3,   23.3,   24.4,   24.0,   26.9,   27.0,   28.5,   31.0,   31.1,   32.1,   34.1,   34.9,   36.3,   41.2,   35.7,   36.6,   41.7,   39.3,   39.9,   41.4,   41.9,   42.5,   42.1,   41.7,   42.0,   42.0,  999.0,   42.4,   42.1,   42.4,   42.5,  999.0,   41.3,   42.4,   41.6,   41.4,   42.3,   41.6,   41.6,   42.1
2001/02/09 16:50,  999.0,    7.8,    9.7,   10.9,   12.1,   13.2,   14.1,   14.7,   15.5,   16.1,   16.5,   16.8,   17.4,   19.4,   21.1,   21.3,   22.6,   21.3,   23.9,   22.8,  999.0,   22.6,   24.4,   24.3,   26.9,   27.6,  999.0,   26.9,   28.0,   31.3,   25.4,   33.4,  999.0,  999.0,   36.5,  999.0,   38.5,  999.0,   41.6,  999.0,   41.8,   42.1,   42.8,  999.0,   43.1,   42.3,   42.3,  999.0,  999.0,  999.0,  999.0,  999.0,  999.0,   42.1,  999.0,   42.6,  999.0,  999.0
2001/02/09 17:00,  999.0,    7.6,    9.5,   11.6,   12.7,   12.9,   13.8,   14.2,   14.5,   14.9,   15.7,   15.9,   16.9,   18.8,   20.2,   20.6,   19.6,   20.0,   20.4,   22.8,   24.7,  999.0,   22.6,   25.3,   24.9,   22.6,   25.5,   26.4,   28.0,   28.7,   27.8,   27.7,   31.9,   30.0,   29.4,  999.0,   31.3,   36.3,   42.1,   35.6,   32.4,   42.4,   41.6,   34.2,   34.0,   37.6,  999.0,   41.9,   38.9,   39.3,   39.6,   40.7,  999.0,   40.7,   41.6,  999.0,  999.0,   41.2
2001/02/09 17:10,  999.0,    9.3,   10.7,   12.7,   12.9,   13.4,   13.8,   13.5,   14.1,   14.1,   15.4,   16.3,   18.6,   20.2,   21.8,   24.6,   21.3,  999.0,   18.1,   14.0,  999.0,   10.2,  999.0,   22.4,  999.0,    2.3,   12.9,    0.7,   13.0,   13.1,    0.1,  999.0,   14.1,  999.0,  999.0,    0.3,   15.1,   29.3,   14.9,    0.5,   15.8,   32.0,   32.4,    1.7,   34.2,   33.9,   17.7,    0.2,  999.0,   18.7,    0.8,   19.2,  999.0,  999.0,  999.0,  999.0,  999.0,  999.0
2001/02/09 17:20,  999.0,   11.1,   12.1,   13.1,   13.7,   14.0,   14.3,   14.1,   13.2,   13.6,   14.1,   15.5,   17.3,   19.2,   21.7,   24.4,   19.5,  999.0,  999.0,   24.4,   26.3,  999.0,  999.0,  999.0,  999.0,  999.0,  999.0,  999.0,  999.0,  999.0,  999.0,  999.0,  999.0,  999.0,  999.0,  999.0,  999.0,  999.0,  999.0,  999.0,  999.0,  999.0,  999.0,  999.0,  999.0,  999.0,  999.0,  999.0,  999.0,  999.0,  999.0,  999.0,  999.0,  999.0,  999.0,  999.0,  999.0,  999.0
2001/02/09 17:30,  999.0,   12.4,   13.5,   14.3,   13.8,   13.1,   13.1,   13.6,   13.8,   15.0,   16.2,   17.0,   18.8,   20.3,   21.7,   23.0,   24.8,  999.0,  999.0,   21.8,  999.0,  999.0,  999.0,  999.0,  999.0,  999.0,  999.0,  999.0,  999.0,  999.0,  999.0,  999.0,  999.0,  999.0,  999.0,  999.0,  999.0,  999.0,  999.0,  999.0,  999.0,  999.0,  999.0,  999.0,  999.0,  999.0,  999.0,  999.0,  999.0,  999.0,  999.0,  999.0,  999.0,  999.0,  999.0,  999.0,  999.0,  999.0
2001/02/09 17:40,  999.0,   14.0,   14.6,   14.9,   13.1,   13.4,   15.3,   17.8,   19.8,   20.6,   21.6,   21.9,   22.1,   22.2,   21.1,   21.0,  999.0,  999.0,  999.0,   22.4,   16.9,  999.0,   23.8,  999.0,    7.7,    6.2,   25.5,    5.3,   26.4,   14.3,   14.6,   28.0,   28.8,  999.0,  999.0,    0.3,    1.0,  999.0,   16.2,  999.0,  999.0,   34.0,  999.0,   34.8,  999.0,    0.8,   17.7,  999.0,  999.0,  999.0,  999.0,   20.1,   39.2,   20.4,  999.0,   40.9,    1.2,   41.2
2001/02/09 17:50,  999.0,   13.0,   13.8,   13.1,   14.1,   15.5,   17.0,   17.9,   19.2,   20.8,   21.8,   23.4,   21.0,  999.0,   22.0,   21.9,   23.1,   25.0,  999.0,   22.6,   24.0,  999.0,   24.3,   23.0,   25.7,  999.0,   24.1,   27.5,  999.0,  999.0,   29.2,   29.5,  999.0,   30.7,  999.0,  999.0,   31.2,  999.0,  999.0,  999.0,  999.0,  999.0,  999.0,  999.0,  999.0,  999.0,  999.0,  999.0,  999.0,  999.0,  999.0,  999.0,  999.0,  999.0,  999.0,  999.0,  999.0,  999.0
2001/02/09 18:00,  999.0,   12.7,   14.0,   14.4,   14.4,   14.5,   15.6,   16.8,   17.7,   19.0,   20.5,   21.6,   21.7,   21.6,   21.9,   22.6,   22.8,   23.6,   22.0,   23.8,   22.7,   22.7,  999.0,   20.6,   21.4,  999.0,  999.0,  999.0,   23.1,  999.0,  999.0,   24.4,   24.6,  999.0,  999.0,  999.0,  999.0,   26.5,  999.0,  999.0,   28.5,  999.0,  999.0,  999.0,  999.0,  999.0,  999.0,   31.9,  999.0,   30.7,  999.0,   32.8,  999.0,  999.0,   34.2,  999.0,   34.9,  999.0
2001/02/09 18:10,  999.0,   12.5,   13.8,   14.1,   14.1,   14.6,   15.4,   17.2,   18.3,   19.7,   21.0,   21.6,   22.0,   22.4,   22.4,   20.9,   22.3,   20.9,   20.9,   22.1,   22.8,  999.0,   22.8,   23.1,   23.3,  999.0,  999.0,  999.0,  999.0,  999.0,  999.0,  999.0,  999.0,  999.0,  999.0,  999.0,  999.0,  999.0,  999.0,  999.0,  999.0,  999.0,  999.0,  999.0,  999.0,  999.0,  999.0,  999.0,  999.0,  999.0,  999.0,  999.0,  999.0,  999.0,  999.0,  999.0,  999.0,  999.0
2001/02/09 18:20,  999.0,   12.6,   14.0,   13.4,   13.8,   14.4,   15.5,   17.0,   18.0,   18.9,   19.7,   21.3,   20.3,   21.4,   22.3,   22.7,   23.0,   22.4,  999.0,   19.1,   19.4,  999.0,   19.6,   19.7,  999.0,   20.7,   20.0,  999.0,  999.0,  999.0,  999.0,   21.4,  999.0,  999.0,   21.4,  999.0,  999.0,  999.0,  999.0,  999.0,  999.0,  999.0,  999.0,  999.0,  999.0,  999.0,  999.0,  999.0,  999.0,  999.0,  999.0,  999.0,  999.0,  999.0,  999.0,  999.0,  999.0,  999.0
2001/02/09 18:30,  999.0,   12.5,   14.8,   13.6,   13.7,   14.3,   14.8,   15.9,   16.9,   17.9,   19.3,   20.5,   21.2,   22.1,   21.8,   21.6,   23.2,   22.9,   21.1,  999.0,  999.0,  999.0,   21.8,   20.2,   20.0,   21.0,   21.6,   21.6,  999.0,  999.0,  999.0,   21.6,   19.7,   21.8,   21.9,   22.0,   20.9,  999.0,  999.0,  999.0,   20.9,   21.9,   21.4,  999.0,  999.0,   21.9,   21.4,   22.3,   21.6,  999.0,   20.7,   21.2,   20.8,  999.0,  999.0,  999.0,  999.0,  999.0
2001/02/09 18:40,  999.0,   13.0,   13.9,   13.8,   14.1,   14.0,   15.0,   15.8,   17.5,   18.0,   18.7,   19.3,   21.0,   21.0,   22.7,   23.5,   23.8,  999.0,  999.0,   24.4,  999.0,  999.0,  999.0,  999.0,  999.0,  999.0,  999.0,  999.0,  999.0,  999.0,  999.0,  999.0,  999.0,  999.0,  999.0,  999.0,  999.0,  999.0,  999.0,  999.0,  999.0,  999.0,  999.0,  999.0,  999.0,  999.0,  999.0,  999.0,  999.0,  999.0,  999.0,  999.0,  999.0,  999.0,  999.0,  999.0,  999.0,  999.0
2001/02/09 18:50,  999.0,   12.6,   14.1,   13.9,   14.2,   15.0,   16.2,   16.1,   17.7,   18.7,   19.5,   19.2,   20.7,   21.5,   21.7,   21.1,   20.8,   21.6,   21.5,  999.0,   21.4,  999.0,  999.0,  999.0,  999.0,  999.0,   22.1,   22.2,  999.0,  999.0,  999.0,   21.1,  999.0,  999.0,   21.5,  999.0,  999.0,  999.0,  999.0,  999.0,  999.0,  999.0,  999.0,  999.0,  999.0,  999.0,  999.0,  999.0,  999.0,  999.0,  999.0,  999.0,  999.0,  999.0,  999.0,  999.0,  999.0,  999.0
2001/02/09 19:00,  999.0,   12.2,   14.0,   14.0,   13.7,   13.8,   14.0,   14.5,   15.7,   16.0,   17.0,   18.5,   19.4,  999.0,   22.7,   24.5,   21.4,   22.4,   22.1,   23.3,   21.8,   22.2,   22.8,   20.5,  999.0,  999.0,   24.9,   24.9,  999.0,  999.0,  999.0,  999.0,  999.0,  999.0,   25.7,  999.0,  999.0,  999.0,  999.0,  999.0,  999.0,  999.0,  999.0,  999.0,  999.0,  999.0,  999.0,  999.0,  999.0,  999.0,  999.0,  999.0,  999.0,  999.0,  999.0,  999.0,  999.0,  999.0
2001/02/09 19:10,  999.0,   12.7,   14.0,   13.6,   13.6,   13.2,   13.6,   14.4,   15.0,   16.3,   17.7,   18.6,   17.8,   20.5,   19.8,   21.5,   22.4,   21.6,   21.6,   21.9,   22.2,   20.3,   21.1,   20.5,  999.0,   21.0,   21.7,  999.0,   21.0,  999.0,  999.0,   21.4,  999.0,   21.7,   24.0,  999.0,  999.0,   22.9,  999.0,  999.0,  999.0,  999.0,  999.0,  999.0,  999.0,  999.0,  999.0,  999.0,  999.0,  999.0,  999.0,  999.0,   22.2,   21.5,   22.2,   21.8,  999.0,  999.0
2001/02/09 19:20,  999.0,   12.8,   13.2,   13.8,   12.8,   13.7,   14.8,   15.8,   16.8,   17.6,   17.9,   17.9,   18.3,   19.8,   21.0,  999.0,   21.7,  999.0,   20.8,  999.0,  999.0,  999.0,   20.8,  999.0,  999.0,   19.7,   19.3,  999.0,   19.3,   19.2,   19.0,  999.0,   19.0,  999.0,  999.0,  999.0,   17.5,  999.0,  999.0,  999.0,  999.0,  999.0,  999.0,  999.0,  999.0,  999.0,  999.0,  999.0,  999.0,  999.0,  999.0,  999.0,  999.0,  999.0,  999.0,  999.0,  999.0,  999.0
2001/02/09 19:30,  999.0,   12.1,   12.6,   13.0,   14.2,   14.5,   15.0,   16.6,   17.6,   19.1,   20.8,   16.9,   18.4,   19.4,   21.1,   22.7,   21.2,   22.6,   22.4,  999.0,  999.0,  999.0,   22.0,   21.8,   18.7,  999.0,   20.7,  999.0,   19.8,  999.0,  999.0,  999.0,   19.6,  999.0,  999.0,   17.8,   19.1,  999.0,   19.1,  999.0,  999.0,  999.0,  999.0,  999.0,  999.0,  999.0,  999.0,  999.0,  999.0,  999.0,  999.0,  999.0,  999.0,  999.0,  999.0,  999.0,  999.0,  999.0
2001/02/09 19:40,  999.0,   13.1,   13.9,    9.3,   14.7,   14.2,   15.5,   16.7,   18.7,   18.3,  999.0,   17.2,   18.5,   20.6,   22.2,   24.5,   23.0,   23.1,  999.0,  999.0,  999.0,  999.0,  999.0,  999.0,  999.0,  999.0,  999.0,  999.0,  999.0,  999.0,  999.0,  999.0,  999.0,  999.0,  999.0,  999.0,  999.0,  999.0,  999.0,  999.0,  999.0,  999.0,  999.0,  999.0,  999.0,  999.0,  999.0,  999.0,  999.0,  999.0,  999.0,  999.0,  999.0,  999.0,  999.0,  999.0,  999.0,  999.0
2001/02/09 19:50,  999.0,   13.5,   14.3,   13.7,   13.2,   12.4,   13.2,   15.3,   17.0,   18.0,   16.0,   17.4,   18.4,   19.8,   19.3,   19.5,   21.8,   23.9,   23.0,  999.0,  999.0,   23.1,   23.4,  999.0,  999.0,   23.1,  999.0,  999.0,  999.0,  999.0,   23.4,  999.0,  999.0,  999.0,  999.0,  999.0,  999.0,  999.0,  999.0,  999.0,  999.0,  999.0,  999.0,  999.0,  999.0,  999.0,  999.0,  999.0,  999.0,  999.0,  999.0,  999.0,  999.0,  999.0,  999.0,  999.0,  999.0,  999.0
2001/02/09 20:00,  999.0,   13.5,   14.4,   14.4,   14.4,   14.4,   15.8,   16.8,   18.0,   19.0,   20.5,   18.9,   17.8,   20.7,   20.1,   20.5,   21.5,   20.5,  999.0,  999.0,   20.5,  999.0,  999.0,   20.7,  999.0,  999.0,  999.0,  999.0,  999.0,  999.0,   21.1,  999.0,   20.6,  999.0,  999.0,   21.5,  999.0,  999.0,  999.0,  999.0,   21.7,   21.3,  999.0,  999.0,  999.0,  999.0,  999.0,  999.0,  999.0,  999.0,  999.0,  999.0,  999.0,  999.0,  999.0,  999.0,  999.0,  999.0
2001/02/09 20:10,  999.0,   13.7,   15.1,   15.2,   14.8,   15.1,   16.1,   16.8,   18.2,   19.7,   20.1,   21.2,   21.5,   21.2,   21.1,  999.0,   22.0,  999.0,  999.0,  999.0,  999.0,  999.0,  999.0,  999.0,  999.0,   21.7,   21.6,  999.0,   21.4,   21.9,  999.0,  999.0,  999.0,  999.0,  999.0,  999.0,  999.0,  999.0,  999.0,   22.2,  999.0,  999.0,  999.0,  999.0,   22.2,  999.0,  999.0,  999.0,  999.0,  999.0,  999.0,  999.0,   22.1,  999.0,  999.0,  999.0,  999.0,  999.0
2001/02/09 20:20,  999.0,   13.6,   14.4,   15.2,   15.5,   15.3,   16.0,   17.2,   18.8,   19.9,   20.7,   21.6,   21.7,   22.2,  999.0,   21.1,  999.0,   21.6,  999.0,   21.2,   21.7,   22.1,   22.1,   21.8,  999.0,   21.8,  999.0,   21.5,   21.2,  999.0,   22.0,   21.4,   22.5,   23.1,   20.5,   20.9,   21.3,   21.1,  999.0,   21.0,  999.0,  999.0,   20.7,   21.1,  999.0,  999.0,  999.0,  999.0,   20.8,   21.5,  999.0,  999.0,  999.0,   21.5,   20.8,  999.0,  999.0,  999.0
2001/02/09 20:30,  999.0,   13.0,   14.4,   15.3,   16.1,   16.0,   17.8,   17.3,   18.5,   19.5,   20.7,   21.1,  999.0,  999.0,  999.0,  999.0,  999.0,  999.0,  999.0,  999.0,  999.0,  999.0,  999.0,  999.0,  999.0,  999.0,  999.0,  999.0,  999.0,  999.0,  999.0,  999.0,  999.0,  999.0,  999.0,  999.0,  999.0,  999.0,  999.0,  999.0,  999.0,  999.0,  999.0,  999.0,  999.0,  999.0,  999.0,  999.0,  999.0,  999.0,  999.0,  999.0,  999.0,  999.0,  999.0,  999.0,  999.0,  999.0
2001/02/09 20:40,  999.0,   12.3,   14.3,   15.7,   16.2,   14.5,   15.8,   16.2,   17.0,   20.6,   20.4,   21.0,   21.2,   21.5,   22.2,  999.0,  999.0,   20.3,   22.0,   23.5,   21.9,   22.2,   23.4,   19.5,   20.4,  999.0,  999.0,   22.1,   21.6,   21.9,   22.4,   21.3,   21.7,   21.9,  999.0,  999.0,  999.0,  999.0,  999.0,  999.0,  999.0,  999.0,  999.0,  999.0,  999.0,  999.0,  999.0,  999.0,  999.0,  999.0,  999.0,  999.0,  999.0,  999.0,  999.0,  999.0,  999.0,  999.0
2001/02/09 20:50,  999.0,   12.3,   14.2,   15.0,   15.2,   15.8,   16.7,   17.1,   19.1,   20.1,   20.5,   21.3,   21.0,   21.1,  999.0,   21.4,  999.0,   21.4,   21.8,   22.8,  999.0,   20.7,   20.7,   20.1,   19.0,   21.5,   21.5,   22.0,   21.3,   19.8,   21.0,  999.0,  999.0,  999.0,   19.1,   20.0,  999.0,   19.5,  999.0,  999.0,  999.0,  999.0,  999.0,   17.8,  999.0,  999.0,  999.0,  999.0,  999.0,  999.0,  999.0,  999.0,  999.0,  999.0,  999.0,  999.0,  999.0,  999.0
2001/02/09 21:00,  999.0,   13.9,   14.7,   14.9,   15.0,   15.3,   16.6,   18.3,   18.6,   19.6,   21.1,   21.9,  999.0,   20.1,   18.9,  999.0,  999.0,   19.7,   21.8,   20.8,  999.0,   21.4,   20.7,   21.2,  999.0,   21.8,  999.0,   20.4,  999.0,  999.0,  999.0,  999.0,  999.0,   21.3,  999.0,   21.8,   22.3,  999.0,  999.0,  999.0,   22.8,  999.0,  999.0,   23.0,  999.0,  999.0,  999.0,   22.8,   23.2,  999.0,  999.0,  999.0,  999.0,  999.0,  999.0,  999.0,  999.0,  999.0
2001/02/09 21:10,  999.0,   13.7,   15.0,   15.1,   14.8,   15.4,   16.5,   17.9,   19.2,   20.4,   21.0,   21.2,  999.0,   22.1,   20.4,   21.0,   23.0,   23.2,   21.7,   21.8,   21.7,   21.2,   20.1,   20.5,   19.2,   19.0,  999.0,  999.0,  999.0,  999.0,  999.0,  999.0,  999.0,  999.0,  999.0,  999.0,  999.0,  999.0,  999.0,  999.0,  999.0,  999.0,  999.0,  999.0,  999.0,  999.0,  999.0,  999.0,  999.0,  999.0,  999.0,  999.0,  999.0,  999.0,  999.0,  999.0,  999.0,  999.0
2001/02/09 21:20,  999.0,   13.4,   15.1,   15.2,   15.5,   15.7,   16.6,   17.7,   19.2,   20.2,   21.9,   21.8,   19.5,   19.6,   20.3,  999.0,   18.3,   18.4,   21.1,  999.0,   17.8,   20.4,   19.1,  999.0,   19.8,  999.0,  999.0,   19.0,  999.0,   19.5,  999.0,  999.0,  999.0,   20.1,   21.0,  999.0,  999.0,  999.0,  999.0,  999.0,  999.0,  999.0,  999.0,  999.0,   21.4,  999.0,  999.0,   20.7,  999.0,   21.7,  999.0,   21.5,  999.0,  999.0,  999.0,  999.0,  999.0,  999.0
2001/02/09 21:30,  999.0,   13.1,   14.9,   14.6,   15.5,   15.6,   16.8,   17.6,   18.7,   19.4,   20.2,   19.9,   22.2,   23.4,  999.0,   19.8,   20.1,   21.8,   20.6,  999.0,  999.0,  999.0,   19.2,  999.0,   19.4,   21.5,  999.0,   20.4,   20.7,  999.0,  999.0,  999.0,  999.0,  999.0,  999.0,  999.0,  999.0,  999.0,   22.0,  999.0,   22.3,  999.0,  999.0,  999.0,  999.0,  999.0,  999.0,  999.0,  999.0,  999.0,  999.0,  999.0,  999.0,  999.0,  999.0,  999.0,  999.0,  999.0
2001/02/09 21:40,  999.0,   12.4,   14.4,   14.0,   14.2,   15.9,   18.9,   19.4,   17.6,   18.5,   19.7,   20.5,   20.4,   23.7,   25.5,   24.0,   19.8,  999.0,  999.0,   21.7,   22.9,   24.0,  999.0,  999.0,  999.0,  999.0,  999.0,   20.5,   19.8,   19.3,   18.8,   19.7,   20.0,   20.4,   19.6,   19.3,   19.4,   19.5,  999.0,  999.0,  999.0,  999.0,   20.7,   20.8,  999.0,  999.0,  999.0,  999.0,   21.2,   18.7,  999.0,   19.2,  999.0,  999.0,  999.0,  999.0,   18.5,  999.0
2001/02/09 21:50,  999.0,   13.2,   14.2,   14.2,   14.8,   15.5,   16.8,  999.0,   18.7,   18.3,   18.7,   21.4,   19.1,   21.0,   24.0,   25.1,   21.5,   19.3,   20.5,  999.0,   26.2,  999.0,  999.0,   21.6,   21.4,   22.3,   21.6,  999.0,   21.2,   22.3,   23.1,   21.1,  999.0,   20.0,  999.0,  999.0,   20.5,  999.0,   20.3,   20.0,   20.7,  999.0,  999.0,   20.1,  999.0,  999.0,  999.0,  999.0,  999.0,  999.0,  999.0,  999.0,  999.0,  999.0,  999.0,  999.0,  999.0,  999.0
2001/02/09 22:00,  999.0,   13.2,   14.0,   13.6,   13.8,   14.5,   14.9,   20.5,   17.7,   16.1,   15.0,   17.9,   18.7,  999.0,   21.4,   25.3,   23.9,   23.5,   23.1,   23.4,  999.0,   21.5,   21.7,  999.0,   22.9,   22.2,   21.1,  999.0,   21.9,  999.0,   21.5,  999.0,  999.0,   20.4,  999.0,   21.1,  999.0,   21.2,   21.0,  999.0,  999.0,   20.2,   19.9,  999.0,  999.0,  999.0,  999.0,   19.6,   19.8,  999.0,   20.6,   20.5,  999.0,  999.0,  999.0,  999.0,   19.7,   19.3
2001/02/09 22:10,  999.0,   13.2,   13.7,   12.6,   12.5,   13.7,   15.5,  999.0,   15.3,   15.3,   15.7,   19.8,   20.3,   21.3,   21.7,   25.4,   23.3,   27.2,  999.0,   21.6,   22.9,   21.9,  999.0,  999.0,   21.2,   22.4,   21.0,  999.0,  999.0,   24.1,  999.0,   23.7,   20.8,   23.8,  999.0,  999.0,  999.0,   22.2,  999.0,   22.4,   22.6,   21.7,   23.7,   24.3,   22.6,  999.0,   21.9,   23.3,   23.4,   21.7,   21.9,  999.0,   20.4,   20.5,   20.7,  999.0,   20.6,   20.2
2001/02/09 22:20,  999.0,   12.8,   12.8,   11.9,   11.0,   12.5,   16.4,   13.4,   14.2,   12.0,   21.4,   20.1,   21.1,   23.6,  999.0,   22.4,   22.4,   23.4,   23.3,   23.5,   20.2,   18.3,   21.7,   21.9,   22.6,   23.2,   21.8,   18.0,   21.4,   26.1,   24.4,  999.0,   22.6,   21.2,   25.7,   21.0,   22.2,   26.3,   22.4,  999.0,   25.9,   22.1,   20.6,   37.8,   20.7,   20.9,   20.2,   20.5,   20.5,   20.2,   31.2,   21.6,  999.0,   31.3,  999.0,  999.0,   21.1,   31.2
2001/02/09 22:30,  999.0,   11.7,   11.6,   10.9,   10.7,   11.7,   12.3,   13.6,   12.9,   17.2,   18.2,   19.1,  999.0,  999.0,  999.0,   19.2,   24.3,   23.2,   22.4,   23.8,   19.2,   20.9,   19.3,  999.0,  999.0,  999.0,  999.0,  999.0,  999.0,  999.0,  999.0,  999.0,  999.0,  999.0,  999.0,  999.0,  999.0,  999.0,  999.0,  999.0,  999.0,  999.0,  999.0,  999.0,  999.0,  999.0,  999.0,  999.0,  999.0,  999.0,  999.0,  999.0,  999.0,  999.0,  999.0,  999.0,  999.0,  999.0
2001/02/09 22:40,  999.0,   10.6,   10.8,   10.0,   10.2,   11.0,   12.0,   12.1,   12.7,   15.8,   16.5,   19.5,   20.9,   20.7,   23.0,   24.2,   25.2,   23.4,   21.7,   21.1,   22.2,  999.0,   24.5,   19.8,  999.0,  999.0,   18.7,   19.0,  999.0,  999.0,  999.0,  999.0,  999.0,  999.0,  999.0,  999.0,  999.0,  999.0,  999.0,  999.0,  999.0,  999.0,  999.0,  999.0,  999.0,  999.0,  999.0,  999.0,  999.0,  999.0,  999.0,  999.0,  999.0,  999.0,  999.0,  999.0,  999.0,  999.0
2001/02/09 22:50,  999.0,   12.0,   10.9,    9.9,   10.8,   15.8,   11.0,   10.8,   11.4,  999.0,   17.2,   19.5,   20.5,   21.1,  999.0,  999.0,  999.0,   19.6,   20.1,   19.2,   20.4,  999.0,   21.0,  999.0,  999.0,  999.0,  999.0,  999.0,   21.8,  999.0,   22.9,  999.0,  999.0,  999.0,  999.0,   23.3,  999.0,   23.5,  999.0,  999.0,  999.0,  999.0,  999.0,  999.0,  999.0,  999.0,  999.0,  999.0,  999.0,  999.0,  999.0,  999.0,  999.0,  999.0,  999.0,  999.0,  999.0,  999.0
2001/02/09 23:00,  999.0,   10.2,   10.4,    9.4,   10.0,   12.5,   11.2,  999.0,  999.0,   14.9,   14.7,   18.6,   20.3,   20.8,   20.3,   21.5,   23.8,   23.4,   21.2,   22.0,   22.5,   21.1,   21.5,   21.2,   21.0,   21.3,   20.9,   21.9,   21.3,   22.8,   21.4,   22.2,  999.0,  999.0,  999.0,   21.4,   22.6,   21.7,   22.2,  999.0,  999.0,   23.0,   22.2,   23.4,   22.7,  999.0,  999.0,  999.0,  999.0,   23.6,  999.0,  999.0,  999.0,  999.0,   24.1,  999.0,   23.9,   24.6
2001/02/09 23:10,  999.0,   10.7,   10.2,    9.9,   10.6,  999.0,   10.3,  999.0,   12.6,   14.6,   14.2,  999.0,   18.7,   19.2,   21.1,   21.7,   19.6,   21.0,   20.3,   20.9,   22.1,   20.4,   21.1,   21.4,   20.7,  999.0,  999.0,   20.7,  999.0,   20.3,   21.1,   21.0,  999.0,   22.1,   21.5,  999.0,  999.0,   21.4,  999.0,   22.2,   21.4,  999.0,  999.0,   22.7,  999.0,   22.7,   23.3,  999.0,   22.8,   23.2,  999.0,  999.0,   23.8,  999.0,  999.0,  999.0,   23.8,   24.3
2001/02/09 23:20,  999.0,   10.3,    9.2,    9.3,   10.1,   10.0,    9.8,   11.3,  999.0,   13.9,   15.4,   15.9,   14.7,  999.0,   20.8,   20.3,   20.3,   20.7,   21.0,   19.7,   19.7,   20.4,   21.7,   21.4,   20.9,  999.0,   21.9,   20.6,  999.0,  999.0,   21.6,   21.8,   20.7,   20.6,   21.6,   21.4,  999.0,  999.0,   22.1,   22.3,   22.4,   22.3,   22.3,   23.3,   22.8,  999.0,   22.3,   23.6,   22.7,   23.3,  999.0,  999.0,  999.0,  999.0,  999.0,  999.0,  999.0,   24.3
2001/02/09 23:30,  999.0,    9.4,    8.7,    8.9,   10.5,   10.4,  999.0,   10.5,    8.2,   11.8,  999.0,   10.7,  999.0,   18.9,   19.7,   18.9,   19.6,   21.6,   20.7,   22.0,   20.0,   21.9,   20.9,   21.4,  999.0,   25.1,   24.2,   21.7,   21.5,   21.5,   26.8,  999.0,   21.7,   24.4,  999.0,   27.6,  999.0,   21.9,  999.0,   22.7,   23.0,  999.0,   22.2,   30.6,   25.1,   23.3,  999.0,  999.0,  999.0,  999.0,   13.7,   13.6,   11.1,   10.3,   11.2,   21.1,   11.6,   11.2
2001/02/09 23:40,  999.0,    8.8,    8.6,    7.5,    7.6,    7.9,    6.1,    7.7,   10.6,   10.6,   10.6,   12.5,   13.5,   15.3,   19.5,   20.5,   22.4,   21.4,   22.0,   22.8,   22.7,   22.8,   23.0,  999.0,  999.0,   21.2,   21.3,  999.0,  999.0,   22.2,  999.0,  999.0,   21.5,  999.0,   24.0,   24.2,  999.0,   25.6,  999.0,   26.7,   26.6,  999.0,  999.0,  999.0,   29.0,  999.0,  999.0,   12.1,  999.0,  999.0,   12.5,   19.8,  999.0,  999.0,  999.0,  999.0,  999.0,   14.4
2001/02/09 23:50,  999.0,    8.3,    7.9,    7.6,    6.1,    7.0,    7.0,    8.0,    8.4,    9.9,   10.5,   12.0,   14.2,   16.6,   18.2,   20.9,  999.0,   20.4,   20.0,   21.4,   20.8,  999.0,   20.8,   21.5,   21.3,  999.0,  999.0,  999.0,  999.0,  999.0,   20.4,  999.0,  999.0,   22.8,   21.8,  999.0,   22.8,  999.0,   22.7,  999.0,  999.0,  999.0,  999.0,  999.0,  999.0,  999.0,    6.1,  999.0,    9.9,  999.0,   11.8,   10.6,   15.9,   10.2,   12.9,   14.7,   15.0,   15.2
